Time,TemperatureF,DewpointF,PressureIn,WindDirection,WindDirectionDegrees,WindSpeedMPH,WindSpeedGustMPH,Humidity,HourlyPrecipIn,Conditions,Clouds,dailyrainin,SoftwareType,DateUTC
2013-06-10 00:01:00,72.4,68.6,29.90,South,191,3.0,3.0,88,0.00,,,0.17,Wunderground v.1.15,2013-06-10 04:01:00,
2013-06-10 00:07:00,72.3,68.5,29.90,SSW,195,3.0,3.0,88,0.00,,,0.00,Wunderground v.1.15,2013-06-10 04:07:00,
2013-06-10 00:08:00,72.3,68.5,29.90,SSW,195,5.0,5.0,88,0.00,,,0.00,Wunderground v.1.15,2013-06-10 04:08:00,
2013-06-10 00:09:00,72.4,68.3,29.90,SSW,195,2.0,2.0,87,0.00,,,0.00,Wunderground v.1.15,2013-06-10 04:09:00,
2013-06-10 00:12:00,72.4,68.3,29.90,SSW,195,0.0,3.0,87,0.00,,,0.00,Wunderground v.1.15,2013-06-10 04:12:00,
2013-06-10 00:13:00,72.4,68.3,29.90,SSW,195,6.0,6.0,87,0.00,,,0.00,Wunderground v.1.15,2013-06-10 04:13:00,
2013-06-10 00:14:00,72.4,68.6,29.90,SSW,195,0.0,6.0,88,0.00,,,0.00,Wunderground v.1.15,2013-06-10 04:14:00,
2013-06-10 00:15:00,72.5,68.4,29.90,SSW,195,1.0,6.0,87,0.00,,,0.00,Wunderground v.1.15,2013-06-10 04:15:00,
2013-06-10 00:19:00,72.4,68.3,29.90,SSW,195,4.0,6.0,87,0.00,,,0.00,Wunderground v.1.15,2013-06-10 04:19:00,
2013-06-10 00:21:00,72.4,68.6,29.91,SSW,195,1.0,2.0,88,0.00,,,0.00,Wunderground v.1.15,2013-06-10 04:21:00,
2013-06-10 00:25:00,72.3,68.2,29.91,SSW,195,4.0,4.0,87,0.00,,,0.00,Wunderground v.1.15,2013-06-10 04:25:00,
2013-06-10 00:27:00,72.3,68.5,29.91,SSW,195,2.0,4.0,88,0.00,,,0.00,Wunderground v.1.15,2013-06-10 04:27:00,
2013-06-10 00:28:00,72.3,68.2,29.91,SSW,195,0.0,4.0,87,0.00,,,0.00,Wunderground v.1.15,2013-06-10 04:28:00,
2013-06-10 00:31:00,72.2,68.4,29.91,SSW,195,0.0,2.0,88,0.00,,,0.00,Wunderground v.1.15,2013-06-10 04:31:00,
2013-06-10 00:32:00,72.2,68.4,29.90,SSW,195,3.0,3.0,88,0.00,,,0.00,Wunderground v.1.15,2013-06-10 04:32:00,
2013-06-10 00:33:00,72.2,68.4,29.91,SSW,195,0.0,3.0,88,0.00,,,0.00,Wunderground v.1.15,2013-06-10 04:33:00,
2013-06-10 00:34:00,72.1,68.3,29.91,SSW,195,0.0,3.0,88,0.00,,,0.00,Wunderground v.1.15,2013-06-10 04:34:00,
2013-06-10 00:40:00,71.9,68.5,29.91,SSW,195,0.0,0.0,89,0.00,,,0.00,Wunderground v.1.15,2013-06-10 04:40:00,
2013-06-10 00:42:00,71.8,68.4,29.90,SSW,195,0.0,0.0,89,0.00,,,0.00,Wunderground v.1.15,2013-06-10 04:42:00,
2013-06-10 00:44:00,71.8,68.4,29.91,SSW,195,0.0,0.0,89,0.00,,,0.00,Wunderground v.1.15,2013-06-10 04:44:00,
2013-06-10 00:45:00,71.7,68.3,29.90,SSW,195,0.0,0.0,89,0.00,,,0.00,Wunderground v.1.15,2013-06-10 04:45:00,
2013-06-10 00:46:00,71.6,68.2,29.90,SSW,195,1.0,1.0,89,0.00,,,0.00,Wunderground v.1.15,2013-06-10 04:46:00,
2013-06-10 00:50:00,71.5,68.1,29.90,SSW,195,0.0,0.0,89,0.00,,,0.00,Wunderground v.1.15,2013-06-10 04:50:00,
2013-06-10 00:51:00,71.5,68.1,29.90,SSW,195,2.0,2.0,89,0.00,,,0.00,Wunderground v.1.15,2013-06-10 04:51:00,
2013-06-10 00:53:00,71.5,68.1,29.90,SSW,195,0.0,2.0,89,0.00,,,0.00,Wunderground v.1.15,2013-06-10 04:53:00,
2013-06-10 00:54:00,71.5,68.1,29.90,SSW,195,1.0,2.0,89,0.00,,,0.00,Wunderground v.1.15,2013-06-10 04:54:00,
2013-06-10 00:56:00,71.5,68.1,29.90,SSW,195,1.0,2.0,89,0.00,,,0.00,Wunderground v.1.15,2013-06-10 04:56:00,
2013-06-10 00:57:00,71.5,68.1,29.90,SSW,195,2.0,2.0,89,0.00,,,0.00,Wunderground v.1.15,2013-06-10 04:57:00,
2013-06-10 01:00:00,71.6,68.2,29.90,SSW,195,0.0,1.0,89,0.00,,,0.00,Wunderground v.1.15,2013-06-10 05:00:00,
2013-06-10 01:02:00,71.6,67.9,29.89,SSW,195,0.0,1.0,88,0.00,,,0.00,Wunderground v.1.15,2013-06-10 05:02:00,
2013-06-10 01:08:00,71.6,68.2,29.90,SSW,195,0.0,2.0,89,0.00,,,0.00,Wunderground v.1.15,2013-06-10 05:08:00,
2013-06-10 01:09:00,71.6,68.2,29.90,SSW,195,3.0,3.0,89,0.00,,,0.00,Wunderground v.1.15,2013-06-10 05:09:00,
2013-06-10 01:10:00,71.6,68.2,29.89,SSW,195,0.0,1.0,89,0.00,,,0.00,Wunderground v.1.15,2013-06-10 05:10:00,
2013-06-10 01:13:00,71.6,67.9,29.89,SSW,195,0.0,1.0,88,0.00,,,0.00,Wunderground v.1.15,2013-06-10 05:13:00,
2013-06-10 01:14:00,71.6,67.9,29.90,SSW,195,1.0,1.0,88,0.00,,,0.00,Wunderground v.1.15,2013-06-10 05:14:00,
2013-06-10 01:20:00,71.9,68.2,29.89,SSW,195,2.0,2.0,88,0.00,,,0.00,Wunderground v.1.15,2013-06-10 05:20:00,
2013-06-10 01:21:00,71.9,68.2,29.90,SSW,195,1.0,2.0,88,0.00,,,0.00,Wunderground v.1.15,2013-06-10 05:21:00,
2013-06-10 01:22:00,71.9,68.2,29.89,SSW,195,0.0,2.0,88,0.00,,,0.00,Wunderground v.1.15,2013-06-10 05:22:00,
2013-06-10 01:23:00,71.9,67.8,29.89,SSW,195,0.0,2.0,87,0.00,,,0.00,Wunderground v.1.15,2013-06-10 05:23:00,
2013-06-10 01:26:00,72.0,68.2,29.90,SSW,195,3.0,3.0,88,0.00,,,0.00,Wunderground v.1.15,2013-06-10 05:26:00,
2013-06-10 01:30:00,72.2,68.1,29.89,SSW,195,3.0,3.0,87,0.00,,,0.00,Wunderground v.1.15,2013-06-10 05:30:00,
2013-06-10 01:31:00,72.2,68.1,29.90,SSW,196,2.0,3.0,87,0.00,,,0.00,Wunderground v.1.15,2013-06-10 05:31:00,
2013-06-10 01:32:00,72.2,68.1,29.89,SSW,195,6.0,6.0,87,0.00,,,0.00,Wunderground v.1.15,2013-06-10 05:32:00,
2013-06-10 01:35:00,72.5,68.4,29.90,SSW,195,2.0,6.0,87,0.00,,,0.00,Wunderground v.1.15,2013-06-10 05:35:00,
2013-06-10 01:38:00,72.6,68.2,29.90,SSW,196,0.0,6.0,86,0.00,,,0.00,Wunderground v.1.15,2013-06-10 05:38:00,
2013-06-10 01:39:00,72.6,68.5,29.90,SSW,196,2.0,6.0,87,0.00,,,0.00,Wunderground v.1.15,2013-06-10 05:39:00,
2013-06-10 01:40:00,72.6,68.5,29.90,SSW,196,1.0,3.0,87,0.00,,,0.00,Wunderground v.1.15,2013-06-10 05:40:00,
2013-06-10 01:43:00,72.6,68.2,29.90,SSW,196,7.0,7.0,86,0.00,,,0.00,Wunderground v.1.15,2013-06-10 05:43:00,
2013-06-10 01:45:00,72.6,68.2,29.90,SSW,197,3.0,7.0,86,0.00,,,0.00,Wunderground v.1.15,2013-06-10 05:45:00,
2013-06-10 01:47:00,72.8,68.0,29.90,SSW,196,3.0,7.0,85,0.00,,,0.00,Wunderground v.1.15,2013-06-10 05:47:00,
2013-06-10 01:50:00,72.9,68.1,29.90,SSW,195,10.0,10.0,85,0.00,,,0.00,Wunderground v.1.15,2013-06-10 05:50:00,
2013-06-10 01:53:00,73.1,68.0,29.90,SSW,198,3.0,10.0,84,0.00,,,0.00,Wunderground v.1.15,2013-06-10 05:53:00,
2013-06-10 01:54:00,73.1,68.0,29.90,SSW,198,0.0,10.0,84,0.00,,,0.00,Wunderground v.1.15,2013-06-10 05:54:00,
2013-06-10 01:56:00,73.2,67.7,29.90,SSW,199,2.0,10.0,83,0.00,,,0.00,Wunderground v.1.15,2013-06-10 05:56:00,
2013-06-10 01:57:00,73.3,67.8,29.90,SSW,199,4.0,10.0,83,0.00,,,0.00,Wunderground v.1.15,2013-06-10 05:57:00,
2013-06-10 02:00:00,73.3,67.8,29.89,SSW,200,2.0,3.0,83,0.00,,,0.00,Wunderground v.1.15,2013-06-10 06:00:00,
2013-06-10 02:01:00,73.4,67.9,29.89,SSW,201,0.0,3.0,83,0.00,,,0.00,Wunderground v.1.15,2013-06-10 06:01:00,
2013-06-10 02:03:00,73.4,68.3,29.89,SSW,201,0.0,3.0,84,0.00,,,0.00,Wunderground v.1.15,2013-06-10 06:03:00,
2013-06-10 02:05:00,73.4,68.3,29.89,SSW,201,0.0,3.0,84,0.00,,,0.00,Wunderground v.1.15,2013-06-10 06:05:00,
2013-06-10 02:06:00,73.3,68.2,29.89,SSW,200,0.0,3.0,84,0.00,,,0.00,Wunderground v.1.15,2013-06-10 06:06:00,
2013-06-10 02:07:00,73.3,68.2,29.89,SSW,200,0.0,3.0,84,0.00,,,0.00,Wunderground v.1.15,2013-06-10 06:07:00,
2013-06-10 02:08:00,73.3,68.5,29.89,SSW,201,0.0,3.0,85,0.00,,,0.00,Wunderground v.1.15,2013-06-10 06:08:00,
2013-06-10 02:10:00,73.2,68.4,29.89,SSW,200,0.0,0.0,85,0.00,,,0.00,Wunderground v.1.15,2013-06-10 06:10:00,
2013-06-10 02:12:00,73.1,68.3,29.89,SSW,201,0.0,0.0,85,0.00,,,0.00,Wunderground v.1.15,2013-06-10 06:12:00,
2013-06-10 02:14:00,73.0,68.2,29.89,SSW,200,0.0,0.0,85,0.00,,,0.00,Wunderground v.1.15,2013-06-10 06:14:00,
2013-06-10 02:15:00,73.0,68.2,29.89,SSW,200,0.0,0.0,85,0.00,,,0.00,Wunderground v.1.15,2013-06-10 06:15:00,
2013-06-10 02:17:00,72.9,68.5,29.88,SSW,201,1.0,1.0,86,0.00,,,0.00,Wunderground v.1.15,2013-06-10 06:17:00,
2013-06-10 02:20:00,72.7,68.3,29.88,SSW,200,0.0,0.0,86,0.00,,,0.00,Wunderground v.1.15,2013-06-10 06:20:00,
2013-06-10 02:22:00,72.5,68.4,29.88,SSW,201,0.0,0.0,87,0.00,,,0.00,Wunderground v.1.15,2013-06-10 06:22:00,
2013-06-10 02:23:00,72.5,68.4,29.88,SSW,201,0.0,0.0,87,0.00,,,0.00,Wunderground v.1.15,2013-06-10 06:23:00,
2013-06-10 02:25:00,72.3,67.9,29.88,SSW,201,1.0,1.0,86,0.00,,,0.00,Wunderground v.1.15,2013-06-10 06:25:00,
2013-06-10 02:27:00,72.2,68.1,29.88,SSW,201,2.0,2.0,87,0.00,,,0.00,Wunderground v.1.15,2013-06-10 06:27:00,
2013-06-10 02:28:00,72.1,68.0,29.88,SSW,201,1.0,2.0,87,0.00,,,0.00,Wunderground v.1.15,2013-06-10 06:28:00,
2013-06-10 02:30:00,72.0,68.2,29.88,SSW,201,0.0,0.0,88,0.00,,,0.00,Wunderground v.1.15,2013-06-10 06:30:00,
2013-06-10 02:33:00,71.9,68.2,29.87,SSW,200,0.0,1.0,88,0.00,,,0.00,Wunderground v.1.15,2013-06-10 06:33:00,
2013-06-10 02:35:00,71.7,68.0,29.87,SSW,200,1.0,2.0,88,0.00,,,0.00,Wunderground v.1.15,2013-06-10 06:35:00,
2013-06-10 02:36:00,71.7,68.0,29.87,SSW,201,0.0,2.0,88,0.00,,,0.00,Wunderground v.1.15,2013-06-10 06:36:00,
2013-06-10 02:38:00,71.6,67.9,29.87,SSW,200,0.0,2.0,88,0.00,,,0.00,Wunderground v.1.15,2013-06-10 06:38:00,
2013-06-10 02:42:00,71.5,68.1,29.87,SSW,201,1.0,2.0,89,0.00,,,0.00,Wunderground v.1.15,2013-06-10 06:42:00,
2013-06-10 02:43:00,71.4,68.0,29.87,SSW,201,2.0,5.0,89,0.00,,,0.00,Wunderground v.1.15,2013-06-10 06:43:00,
2013-06-10 02:47:00,71.4,67.7,29.87,SSW,206,2.0,10.0,88,0.00,,,0.00,Wunderground v.1.15,2013-06-10 06:47:00,
2013-06-10 02:48:00,71.5,68.1,29.87,SSW,206,2.0,10.0,89,0.00,,,0.00,Wunderground v.1.15,2013-06-10 06:48:00,
2013-06-10 02:49:00,71.4,68.0,29.87,SSW,206,0.0,10.0,89,0.00,,,0.00,Wunderground v.1.15,2013-06-10 06:49:00,
2013-06-10 02:52:00,71.4,68.0,29.87,SSW,206,2.0,5.0,89,0.00,,,0.00,Wunderground v.1.15,2013-06-10 06:52:00,
2013-06-10 02:54:00,71.3,67.2,29.87,SSW,206,2.0,6.0,87,0.00,,,0.00,Wunderground v.1.15,2013-06-10 06:54:00,
2013-06-10 02:57:00,71.4,67.7,29.87,SSW,206,2.0,6.0,88,0.00,,,0.00,Wunderground v.1.15,2013-06-10 06:57:00,
2013-06-10 02:59:00,71.4,67.7,29.87,SSW,209,0.0,10.0,88,0.00,,,0.00,Wunderground v.1.15,2013-06-10 06:59:00,
2013-06-10 03:00:00,71.4,67.7,29.87,SSW,208,7.0,8.0,88,0.00,,,0.00,Wunderground v.1.15,2013-06-10 07:00:00,
2013-06-10 03:02:00,71.5,67.8,29.87,SSW,208,5.0,8.0,88,0.00,,,0.00,Wunderground v.1.15,2013-06-10 07:02:00,
2013-06-10 03:03:00,71.5,67.4,29.87,SSW,206,2.0,11.0,87,0.00,,,0.00,Wunderground v.1.15,2013-06-10 07:03:00,
2013-06-10 03:04:00,71.7,66.9,29.87,SSW,207,4.0,11.0,85,0.00,,,0.00,Wunderground v.1.15,2013-06-10 07:04:00,
2013-06-10 03:05:00,71.7,66.9,29.87,SSW,207,2.0,11.0,85,0.00,,,0.00,Wunderground v.1.15,2013-06-10 07:05:00,
2013-06-10 03:06:00,71.8,67.0,29.87,SSW,207,2.0,11.0,85,0.00,,,0.00,Wunderground v.1.15,2013-06-10 07:06:00,
2013-06-10 03:07:00,72.1,67.0,29.87,SSW,209,3.0,11.0,84,0.00,,,0.00,Wunderground v.1.15,2013-06-10 07:07:00,
2013-06-10 03:08:00,72.1,67.0,29.87,SSW,209,5.0,11.0,84,0.00,,,0.00,Wunderground v.1.15,2013-06-10 07:08:00,
2013-06-10 03:10:00,72.4,67.3,29.87,SSW,212,2.0,5.0,84,0.00,,,0.00,Wunderground v.1.15,2013-06-10 07:10:00,
2013-06-10 03:11:00,72.5,67.4,29.87,SSW,212,4.0,5.0,84,0.00,,,0.00,Wunderground v.1.15,2013-06-10 07:11:00,
2013-06-10 03:13:00,72.5,67.4,29.87,SSW,212,4.0,8.0,84,0.00,,,0.00,Wunderground v.1.15,2013-06-10 07:13:00,
2013-06-10 03:14:00,72.5,67.4,29.87,SSW,211,3.0,8.0,84,0.00,,,0.00,Wunderground v.1.15,2013-06-10 07:14:00,
2013-06-10 03:15:00,72.5,67.4,29.87,SSW,212,1.0,8.0,84,0.00,,,0.00,Wunderground v.1.15,2013-06-10 07:15:00,
2013-06-10 03:16:00,72.5,67.4,29.87,SSW,209,6.0,11.0,84,0.00,,,0.00,Wunderground v.1.15,2013-06-10 07:16:00,
2013-06-10 03:17:00,72.6,67.5,29.87,SSW,209,0.0,11.0,84,0.00,,,0.00,Wunderground v.1.15,2013-06-10 07:17:00,
2013-06-10 03:18:00,72.6,67.5,29.87,SSW,209,2.0,11.0,84,0.00,,,0.00,Wunderground v.1.15,2013-06-10 07:18:00,
2013-06-10 03:19:00,72.6,67.1,29.87,SSW,209,2.0,11.0,83,0.00,,,0.00,Wunderground v.1.15,2013-06-10 07:19:00,
2013-06-10 03:20:00,72.6,67.5,29.86,SSW,209,0.0,3.0,84,0.00,,,0.00,Wunderground v.1.15,2013-06-10 07:20:00,
2013-06-10 03:21:00,72.6,67.5,29.86,SSW,209,2.0,3.0,84,0.00,,,0.00,Wunderground v.1.15,2013-06-10 07:21:00,
2013-06-10 03:22:00,72.6,67.5,29.86,SSW,209,2.0,5.0,84,0.00,,,0.00,Wunderground v.1.15,2013-06-10 07:22:00,
2013-06-10 03:23:00,72.6,67.5,29.86,SSW,209,0.0,5.0,84,0.00,,,0.00,Wunderground v.1.15,2013-06-10 07:23:00,
2013-06-10 03:24:00,72.5,67.4,29.86,SSW,208,4.0,5.0,84,0.00,,,0.00,Wunderground v.1.15,2013-06-10 07:24:00,
2013-06-10 03:27:00,72.5,67.4,29.86,SSW,209,4.0,10.0,84,0.00,,,0.00,Wunderground v.1.15,2013-06-10 07:27:00,
2013-06-10 03:29:00,72.6,67.1,29.86,SSW,209,2.0,10.0,83,0.00,,,0.00,Wunderground v.1.15,2013-06-10 07:29:00,
2013-06-10 03:30:00,72.5,67.4,29.86,SSW,209,0.0,2.0,84,0.00,,,0.00,Wunderground v.1.15,2013-06-10 07:30:00,
2013-06-10 03:32:00,72.5,67.4,29.86,SSW,209,0.0,4.0,84,0.00,,,0.00,Wunderground v.1.15,2013-06-10 07:32:00,
2013-06-10 03:33:00,72.4,67.3,29.86,SSW,209,2.0,4.0,84,0.00,,,0.00,Wunderground v.1.15,2013-06-10 07:33:00,
2013-06-10 03:34:00,72.4,67.3,29.86,SSW,209,1.0,4.0,84,0.00,,,0.00,Wunderground v.1.15,2013-06-10 07:34:00,
2013-06-10 03:35:00,72.4,67.3,29.86,SSW,209,7.0,7.0,84,0.00,,,0.00,Wunderground v.1.15,2013-06-10 07:35:00,
2013-06-10 03:37:00,72.4,67.3,29.86,SSW,210,13.0,13.0,84,0.00,,,0.00,Wunderground v.1.15,2013-06-10 07:37:00,
2013-06-10 03:38:00,72.4,66.9,29.86,SSW,210,5.0,13.0,83,0.00,,,0.00,Wunderground v.1.15,2013-06-10 07:38:00,
2013-06-10 03:40:00,72.5,67.4,29.86,SSW,210,0.0,3.0,84,0.00,,,0.00,Wunderground v.1.15,2013-06-10 07:40:00,
2013-06-10 03:42:00,72.5,67.4,29.86,SSW,210,1.0,4.0,84,0.00,,,0.00,Wunderground v.1.15,2013-06-10 07:42:00,
2013-06-10 03:43:00,72.5,67.4,29.86,SSW,210,3.0,4.0,84,0.00,,,0.00,Wunderground v.1.15,2013-06-10 07:43:00,
2013-06-10 03:45:00,72.5,68.1,29.86,SSW,209,1.0,12.0,86,0.00,,,0.01,Wunderground v.1.15,2013-06-10 07:45:00,
2013-06-10 03:47:00,72.2,67.8,29.86,SSW,209,0.0,12.0,86,0.00,,,0.01,Wunderground v.1.15,2013-06-10 07:47:00,
2013-06-10 03:48:00,72.1,68.0,29.86,SSW,209,1.0,12.0,87,0.15,,,0.02,Wunderground v.1.15,2013-06-10 07:48:00,
2013-06-10 03:51:00,71.6,67.5,29.86,SSW,209,3.0,12.0,87,0.18,,,0.02,Wunderground v.1.15,2013-06-10 07:51:00,
2013-06-10 03:52:00,71.3,67.6,29.86,SSW,210,3.0,12.0,88,0.18,,,0.03,Wunderground v.1.15,2013-06-10 07:52:00,
2013-06-10 03:53:00,71.1,67.7,29.86,SSW,209,0.0,12.0,89,0.18,,,0.03,Wunderground v.1.15,2013-06-10 07:53:00,
2013-06-10 03:54:00,71.0,67.6,29.86,SSW,209,0.0,12.0,89,0.18,,,0.03,Wunderground v.1.15,2013-06-10 07:54:00,
2013-06-10 03:56:00,70.8,67.7,29.86,SSW,209,0.0,12.0,90,0.12,,,0.03,Wunderground v.1.15,2013-06-10 07:56:00,
2013-06-10 03:57:00,70.7,67.9,29.86,SSW,209,0.0,12.0,91,0.09,,,0.03,Wunderground v.1.15,2013-06-10 07:57:00,
2013-06-10 03:58:00,70.6,67.8,29.86,SSW,209,0.0,12.0,91,0.08,,,0.03,Wunderground v.1.15,2013-06-10 07:58:00,
2013-06-10 03:59:00,70.6,67.8,29.86,SSW,209,0.0,12.0,91,0.07,,,0.03,Wunderground v.1.15,2013-06-10 07:59:00,
2013-06-10 04:01:00,70.4,67.6,29.86,SSW,209,0.0,2.0,91,0.06,,,0.03,Wunderground v.1.15,2013-06-10 08:01:00,
2013-06-10 04:02:00,70.3,67.5,29.86,SSW,209,0.0,2.0,91,0.05,,,0.03,Wunderground v.1.15,2013-06-10 08:02:00,
2013-06-10 04:03:00,70.3,67.5,29.86,SSW,209,0.0,2.0,91,0.05,,,0.03,Wunderground v.1.15,2013-06-10 08:03:00,
2013-06-10 04:04:00,70.2,67.4,29.86,SSW,209,1.0,3.0,91,0.05,,,0.03,Wunderground v.1.15,2013-06-10 08:04:00,
2013-06-10 04:07:00,70.0,67.6,29.86,SSW,210,1.0,10.0,92,0.04,,,0.03,Wunderground v.1.15,2013-06-10 08:07:00,
2013-06-10 04:08:00,69.9,67.5,29.86,SSW,210,0.0,10.0,92,0.00,,,0.03,Wunderground v.1.15,2013-06-10 08:08:00,
2013-06-10 04:09:00,69.9,67.5,29.86,SSW,211,1.0,10.0,92,0.00,,,0.03,Wunderground v.1.15,2013-06-10 08:09:00,
2013-06-10 04:10:00,69.8,67.4,29.86,SSW,211,1.0,5.0,92,0.00,,,0.03,Wunderground v.1.15,2013-06-10 08:10:00,
2013-06-10 04:12:00,69.7,67.6,29.86,SSW,211,3.0,5.0,93,0.00,,,0.03,Wunderground v.1.15,2013-06-10 08:12:00,
2013-06-10 04:13:00,69.7,67.6,29.86,SSW,211,2.0,5.0,93,0.00,,,0.03,Wunderground v.1.15,2013-06-10 08:13:00,
2013-06-10 04:14:00,69.6,67.5,29.86,SSW,211,1.0,5.0,93,0.00,,,0.03,Wunderground v.1.15,2013-06-10 08:14:00,
2013-06-10 04:15:00,69.6,67.5,29.86,SSW,210,1.0,5.0,93,0.00,,,0.03,Wunderground v.1.15,2013-06-10 08:15:00,
2013-06-10 04:17:00,69.5,67.4,29.86,SSW,211,0.0,5.0,93,0.00,,,0.03,Wunderground v.1.15,2013-06-10 08:17:00,
2013-06-10 04:18:00,69.5,67.4,29.86,SSW,211,1.0,5.0,93,0.00,,,0.03,Wunderground v.1.15,2013-06-10 08:18:00,
2013-06-10 04:19:00,69.5,67.4,29.86,SSW,210,8.0,8.0,93,0.00,,,0.03,Wunderground v.1.15,2013-06-10 08:19:00,
2013-06-10 04:20:00,69.4,67.3,29.86,SSW,210,0.0,2.0,93,0.00,,,0.03,Wunderground v.1.15,2013-06-10 08:20:00,
2013-06-10 04:22:00,69.4,67.3,29.86,SSW,210,1.0,4.0,93,0.00,,,0.03,Wunderground v.1.15,2013-06-10 08:22:00,
2013-06-10 04:23:00,69.3,67.5,29.86,SSW,192,1.0,15.0,94,0.00,,,0.03,Wunderground v.1.15,2013-06-10 08:23:00,
2013-06-10 04:24:00,69.3,67.5,29.86,SSW,192,0.0,15.0,94,0.00,,,0.03,Wunderground v.1.15,2013-06-10 08:24:00,
2013-06-10 04:25:00,69.3,67.2,29.86,SSW,192,5.0,15.0,93,0.00,,,0.03,Wunderground v.1.15,2013-06-10 08:25:00,
2013-06-10 04:27:00,69.2,67.1,29.86,SSW,193,0.0,15.0,93,0.00,,,0.03,Wunderground v.1.15,2013-06-10 08:27:00,
2013-06-10 04:28:00,69.2,67.1,29.86,SSW,193,0.0,15.0,93,0.00,,,0.03,Wunderground v.1.15,2013-06-10 08:28:00,
2013-06-10 04:29:00,69.2,67.1,29.86,SSW,192,2.0,15.0,93,0.00,,,0.03,Wunderground v.1.15,2013-06-10 08:29:00,
2013-06-10 04:30:00,69.2,67.1,29.86,SSW,192,0.0,2.0,93,0.00,,,0.03,Wunderground v.1.15,2013-06-10 08:30:00,
2013-06-10 04:31:00,69.2,67.1,29.86,SSW,193,1.0,4.0,93,0.00,,,0.03,Wunderground v.1.15,2013-06-10 08:31:00,
2013-06-10 04:33:00,69.2,67.1,29.86,SSW,192,1.0,6.0,93,0.00,,,0.03,Wunderground v.1.15,2013-06-10 08:33:00,
2013-06-10 04:34:00,69.2,67.1,29.86,SSW,193,4.0,6.0,93,0.00,,,0.03,Wunderground v.1.15,2013-06-10 08:34:00,
2013-06-10 04:35:00,69.2,67.1,29.86,SSW,193,4.0,6.0,93,0.00,,,0.03,Wunderground v.1.15,2013-06-10 08:35:00,
2013-06-10 04:37:00,69.2,67.1,29.86,SSW,193,0.0,7.0,93,0.00,,,0.03,Wunderground v.1.15,2013-06-10 08:37:00,
2013-06-10 04:38:00,69.2,67.1,29.86,SSW,192,0.0,7.0,93,0.00,,,0.03,Wunderground v.1.15,2013-06-10 08:38:00,
2013-06-10 04:39:00,69.2,67.1,29.86,SSW,193,2.0,7.0,93,0.00,,,0.03,Wunderground v.1.15,2013-06-10 08:39:00,
2013-06-10 04:40:00,69.2,67.1,29.86,SSW,194,2.0,7.0,93,0.00,,,0.03,Wunderground v.1.15,2013-06-10 08:40:00,
2013-06-10 04:42:00,69.1,67.0,29.86,SSW,194,0.0,7.0,93,0.00,,,0.03,Wunderground v.1.15,2013-06-10 08:42:00,
2013-06-10 04:43:00,69.1,67.0,29.86,SSW,194,0.0,7.0,93,0.00,,,0.03,Wunderground v.1.15,2013-06-10 08:43:00,
2013-06-10 04:44:00,69.1,67.0,29.86,SSW,194,2.0,7.0,93,0.00,,,0.03,Wunderground v.1.15,2013-06-10 08:44:00,
2013-06-10 04:45:00,69.1,67.0,29.86,SSW,194,1.0,7.0,93,0.00,,,0.03,Wunderground v.1.15,2013-06-10 08:45:00,
2013-06-10 04:46:00,69.0,66.9,29.86,SSW,194,3.0,7.0,93,0.00,,,0.03,Wunderground v.1.15,2013-06-10 08:46:00,
2013-06-10 04:47:00,69.0,66.9,29.86,SSW,198,3.0,7.0,93,0.00,,,0.03,Wunderground v.1.15,2013-06-10 08:47:00,
2013-06-10 04:49:00,68.9,66.8,29.86,SSW,198,0.0,7.0,93,0.00,,,0.03,Wunderground v.1.15,2013-06-10 08:49:00,
2013-06-10 04:50:00,68.9,66.8,29.86,SSW,198,1.0,4.0,93,0.00,,,0.03,Wunderground v.1.15,2013-06-10 08:50:00,
2013-06-10 04:51:00,68.9,66.8,29.86,SSW,198,0.0,4.0,93,0.00,,,0.03,Wunderground v.1.15,2013-06-10 08:51:00,
2013-06-10 04:53:00,68.9,66.8,29.86,SSW,200,3.0,10.0,93,0.00,,,0.03,Wunderground v.1.15,2013-06-10 08:53:00,
2013-06-10 04:54:00,68.9,66.8,29.86,SSW,194,5.0,10.0,93,0.00,,,0.03,Wunderground v.1.15,2013-06-10 08:54:00,
2013-06-10 04:56:00,68.9,66.5,29.86,SSW,194,5.0,10.0,92,0.00,,,0.03,Wunderground v.1.15,2013-06-10 08:56:00,
2013-06-10 04:57:00,69.0,66.6,29.86,SSW,194,1.0,10.0,92,0.00,,,0.03,Wunderground v.1.15,2013-06-10 08:57:00,
2013-06-10 04:58:00,69.0,66.6,29.86,SSW,195,3.0,10.0,92,0.00,,,0.03,Wunderground v.1.15,2013-06-10 08:58:00,
2013-06-10 04:59:00,69.0,66.6,29.86,SSW,194,0.0,10.0,92,0.00,,,0.03,Wunderground v.1.15,2013-06-10 08:59:00,
2013-06-10 05:02:00,69.0,66.6,29.86,SSW,194,0.0,4.0,92,0.00,,,0.03,Wunderground v.1.15,2013-06-10 09:02:00,
2013-06-10 05:03:00,68.9,66.5,29.85,SSW,194,3.0,4.0,92,0.00,,,0.03,Wunderground v.1.15,2013-06-10 09:03:00,
2013-06-10 05:04:00,68.9,66.5,29.85,SSW,195,0.0,4.0,92,0.00,,,0.03,Wunderground v.1.15,2013-06-10 09:04:00,
2013-06-10 05:05:00,68.9,66.5,29.86,SSW,195,0.0,4.0,92,0.00,,,0.03,Wunderground v.1.15,2013-06-10 09:05:00,
2013-06-10 05:07:00,68.9,66.5,29.86,SSW,195,1.0,4.0,92,0.00,,,0.03,Wunderground v.1.15,2013-06-10 09:07:00,
2013-06-10 05:10:00,68.8,66.4,29.85,SSW,195,0.0,1.0,92,0.00,,,0.03,Wunderground v.1.15,2013-06-10 09:10:00,
2013-06-10 05:12:00,68.7,66.3,29.85,SSW,195,0.0,2.0,92,0.00,,,0.03,Wunderground v.1.15,2013-06-10 09:12:00,
2013-06-10 05:13:00,68.7,66.3,29.86,SSW,195,0.0,2.0,92,0.00,,,0.03,Wunderground v.1.15,2013-06-10 09:13:00,
2013-06-10 05:15:00,68.6,66.2,29.86,SSW,195,0.0,2.0,92,0.00,,,0.03,Wunderground v.1.15,2013-06-10 09:15:00,
2013-06-10 05:16:00,68.6,66.2,29.86,SSW,195,0.0,2.0,92,0.00,,,0.03,Wunderground v.1.15,2013-06-10 09:16:00,
2013-06-10 05:18:00,68.5,66.1,29.86,SSW,195,0.0,2.0,92,0.00,,,0.03,Wunderground v.1.15,2013-06-10 09:18:00,
2013-06-10 05:19:00,68.5,66.1,29.86,SSW,195,1.0,3.0,92,0.00,,,0.03,Wunderground v.1.15,2013-06-10 09:19:00,
2013-06-10 05:20:00,68.4,66.3,29.86,SSW,195,4.0,4.0,93,0.00,,,0.03,Wunderground v.1.15,2013-06-10 09:20:00,
2013-06-10 05:21:00,68.4,66.3,29.86,SSW,195,7.0,7.0,93,0.00,,,0.03,Wunderground v.1.15,2013-06-10 09:21:00,
2013-06-10 05:23:00,68.5,66.1,29.86,SSW,196,3.0,7.0,92,0.00,,,0.03,Wunderground v.1.15,2013-06-10 09:23:00,
2013-06-10 05:24:00,68.5,66.1,29.86,SSW,195,1.0,7.0,92,0.00,,,0.03,Wunderground v.1.15,2013-06-10 09:24:00,
2013-06-10 05:26:00,68.5,66.4,29.86,SSW,196,0.0,7.0,93,0.00,,,0.03,Wunderground v.1.15,2013-06-10 09:26:00,
2013-06-10 05:28:00,68.5,66.4,29.86,SSW,196,3.0,10.0,93,0.00,,,0.03,Wunderground v.1.15,2013-06-10 09:28:00,
2013-06-10 05:29:00,68.6,66.2,29.86,SSW,195,3.0,10.0,92,0.00,,,0.03,Wunderground v.1.15,2013-06-10 09:29:00,
2013-06-10 05:31:00,68.8,66.1,29.86,SSW,197,3.0,12.0,91,0.00,,,0.03,Wunderground v.1.15,2013-06-10 09:31:00,
2013-06-10 05:34:00,69.1,66.4,29.87,SSW,198,1.0,12.0,91,0.00,,,0.03,Wunderground v.1.15,2013-06-10 09:34:00,
2013-06-10 05:35:00,69.1,66.4,29.87,SSW,198,0.0,12.0,91,0.00,,,0.03,Wunderground v.1.15,2013-06-10 09:35:00,
2013-06-10 05:36:00,69.1,66.4,29.86,SSW,198,5.0,12.0,91,0.00,,,0.03,Wunderground v.1.15,2013-06-10 09:36:00,
2013-06-10 05:37:00,69.2,66.5,29.87,SSW,198,2.0,12.0,91,0.00,,,0.03,Wunderground v.1.15,2013-06-10 09:37:00,
2013-06-10 05:39:00,69.2,66.1,29.87,SSW,198,3.0,12.0,90,0.00,,,0.03,Wunderground v.1.15,2013-06-10 09:39:00,
2013-06-10 05:40:00,69.3,66.2,29.87,SSW,199,3.0,4.0,90,0.00,,,0.03,Wunderground v.1.15,2013-06-10 09:40:00,
2013-06-10 05:41:00,69.4,66.3,29.87,SSW,199,2.0,5.0,90,0.00,,,0.03,Wunderground v.1.15,2013-06-10 09:41:00,
2013-06-10 05:42:00,69.4,66.3,29.87,SSW,198,1.0,5.0,90,0.00,,,0.03,Wunderground v.1.15,2013-06-10 09:42:00,
2013-06-10 05:44:00,69.5,66.1,29.87,SSW,200,6.0,9.0,89,0.00,,,0.03,Wunderground v.1.15,2013-06-10 09:44:00,
2013-06-10 05:45:00,69.5,66.1,29.87,SSW,199,3.0,9.0,89,0.00,,,0.03,Wunderground v.1.15,2013-06-10 09:45:00,
2013-06-10 05:47:00,69.6,66.5,29.87,SSW,200,4.0,9.0,90,0.00,,,0.03,Wunderground v.1.15,2013-06-10 09:47:00,
2013-06-10 05:49:00,69.7,66.3,29.86,SSW,202,4.0,9.0,89,0.00,,,0.03,Wunderground v.1.15,2013-06-10 09:49:00,
2013-06-10 05:50:00,69.8,66.4,29.87,SSW,202,4.0,5.0,89,0.00,,,0.03,Wunderground v.1.15,2013-06-10 09:50:00,
2013-06-10 05:52:00,70.0,66.6,29.87,SSW,201,4.0,6.0,89,0.00,,,0.03,Wunderground v.1.15,2013-06-10 09:52:00,
2013-06-10 05:53:00,70.0,66.3,29.86,SSW,211,7.0,18.0,88,0.00,,,0.03,Wunderground v.1.15,2013-06-10 09:53:00,
2013-06-10 05:55:00,70.3,66.2,29.87,SSW,199,8.0,18.0,87,0.00,,,0.03,Wunderground v.1.15,2013-06-10 09:55:00,
2013-06-10 05:58:00,70.8,66.4,29.86,SSW,200,3.0,18.0,86,0.00,,,0.03,Wunderground v.1.15,2013-06-10 09:58:00,
2013-06-10 05:59:00,70.9,66.2,29.86,SSW,200,4.0,18.0,85,0.00,,,0.03,Wunderground v.1.15,2013-06-10 09:59:00,
2013-06-10 06:00:00,71.0,66.6,29.86,SSW,197,5.0,7.0,86,0.00,,,0.03,Wunderground v.1.15,2013-06-10 10:00:00,
2013-06-10 06:01:00,71.0,66.6,29.86,South,177,6.0,11.0,86,0.00,,,0.03,Wunderground v.1.15,2013-06-10 10:01:00,
2013-06-10 06:03:00,71.0,66.3,29.86,SSW,208,11.0,16.0,85,0.00,,,0.03,Wunderground v.1.15,2013-06-10 10:03:00,
2013-06-10 06:04:00,71.1,66.4,29.86,SSW,204,5.0,16.0,85,0.00,,,0.03,Wunderground v.1.15,2013-06-10 10:04:00,
2013-06-10 06:06:00,71.2,66.5,29.86,SSW,196,4.0,16.0,85,0.00,,,0.03,Wunderground v.1.15,2013-06-10 10:06:00,
2013-06-10 06:07:00,71.3,66.6,29.86,South,186,9.0,16.0,85,0.00,,,0.03,Wunderground v.1.15,2013-06-10 10:07:00,
2013-06-10 06:09:00,71.3,66.2,29.86,SSW,207,9.0,16.0,84,0.00,,,0.03,Wunderground v.1.15,2013-06-10 10:09:00,
2013-06-10 06:10:00,71.3,66.2,29.86,SSW,207,4.0,6.0,84,0.00,,,0.03,Wunderground v.1.15,2013-06-10 10:10:00,
2013-06-10 06:11:00,71.3,66.6,29.87,SSW,206,4.0,10.0,85,0.00,,,0.03,Wunderground v.1.15,2013-06-10 10:11:00,
2013-06-10 06:12:00,71.3,66.6,29.86,SSW,206,2.0,10.0,85,0.00,,,0.03,Wunderground v.1.15,2013-06-10 10:12:00,
2013-06-10 06:14:00,71.3,66.2,29.86,SW,214,3.0,12.0,84,0.00,,,0.03,Wunderground v.1.15,2013-06-10 10:14:00,
2013-06-10 06:15:00,71.3,66.2,29.86,SW,214,2.0,12.0,84,0.00,,,0.03,Wunderground v.1.15,2013-06-10 10:15:00,
2013-06-10 06:17:00,71.3,66.2,29.87,SSW,206,9.0,15.0,84,0.00,,,0.03,Wunderground v.1.15,2013-06-10 10:17:00,
2013-06-10 06:20:00,71.4,66.3,29.87,SW,218,4.0,8.0,84,0.00,,,0.03,Wunderground v.1.15,2013-06-10 10:20:00,
2013-06-10 06:22:00,71.5,66.4,29.87,SW,214,7.0,10.0,84,0.00,,,0.03,Wunderground v.1.15,2013-06-10 10:22:00,
2013-06-10 06:23:00,71.5,66.4,29.87,SSW,211,4.0,10.0,84,0.00,,,0.03,Wunderground v.1.15,2013-06-10 10:23:00,
2013-06-10 06:25:00,71.5,66.4,29.87,SSW,205,3.0,10.0,84,0.00,,,0.03,Wunderground v.1.15,2013-06-10 10:25:00,
2013-06-10 06:27:00,71.5,66.4,29.87,SSW,207,7.0,10.0,84,0.00,,,0.03,Wunderground v.1.15,2013-06-10 10:27:00,
2013-06-10 06:28:00,71.5,66.4,29.87,WSW,240,10.0,10.0,84,0.00,,,0.03,Wunderground v.1.15,2013-06-10 10:28:00,
2013-06-10 06:30:00,71.5,66.4,29.88,SW,221,10.0,10.0,84,0.00,,,0.03,Wunderground v.1.15,2013-06-10 10:30:00,
2013-06-10 06:31:00,71.5,66.4,29.87,SW,219,4.0,12.0,84,0.00,,,0.03,Wunderground v.1.15,2013-06-10 10:31:00,
2013-06-10 06:32:00,71.5,66.4,29.87,SSW,208,5.0,12.0,84,0.00,,,0.03,Wunderground v.1.15,2013-06-10 10:32:00,
2013-06-10 06:33:00,71.5,66.4,29.87,SSW,209,4.0,12.0,84,0.00,,,0.03,Wunderground v.1.15,2013-06-10 10:33:00,
2013-06-10 06:34:00,71.5,66.4,29.88,SSW,209,4.0,12.0,84,0.00,,,0.03,Wunderground v.1.15,2013-06-10 10:34:00,
2013-06-10 06:35:00,71.5,66.4,29.88,SSW,213,1.0,12.0,84,0.00,,,0.03,Wunderground v.1.15,2013-06-10 10:35:00,
2013-06-10 06:37:00,71.5,66.4,29.87,SW,218,2.0,12.0,84,0.00,,,0.03,Wunderground v.1.15,2013-06-10 10:37:00,
2013-06-10 06:38:00,71.5,66.4,29.87,SSW,202,4.0,12.0,84,0.00,,,0.03,Wunderground v.1.15,2013-06-10 10:38:00,
2013-06-10 06:39:00,71.5,66.4,29.87,SSW,197,10.0,12.0,84,0.00,,,0.03,Wunderground v.1.15,2013-06-10 10:39:00,
2013-06-10 06:40:00,71.5,66.4,29.87,SSW,195,0.0,5.0,84,0.00,,,0.03,Wunderground v.1.15,2013-06-10 10:40:00,
2013-06-10 06:42:00,71.5,66.8,29.87,South,186,2.0,5.0,85,0.00,,,0.03,Wunderground v.1.15,2013-06-10 10:42:00,
2013-06-10 06:43:00,71.4,66.3,29.87,SSW,211,3.0,7.0,84,0.00,,,0.03,Wunderground v.1.15,2013-06-10 10:43:00,
2013-06-10 06:44:00,71.4,66.3,29.87,SSW,208,7.0,9.0,84,0.00,,,0.03,Wunderground v.1.15,2013-06-10 10:44:00,
2013-06-10 06:45:00,71.4,66.3,29.87,SSW,205,4.0,9.0,84,0.00,,,0.03,Wunderground v.1.15,2013-06-10 10:45:00,
2013-06-10 06:47:00,71.5,66.4,29.87,SSW,209,5.0,9.0,84,0.00,,,0.03,Wunderground v.1.15,2013-06-10 10:47:00,
2013-06-10 06:48:00,71.5,66.4,29.87,SSW,203,2.0,9.0,84,0.00,,,0.03,Wunderground v.1.15,2013-06-10 10:48:00,
2013-06-10 06:50:00,71.5,66.8,29.87,SSW,202,0.0,4.0,85,0.00,,,0.03,Wunderground v.1.15,2013-06-10 10:50:00,
2013-06-10 06:51:00,71.5,66.8,29.87,SSW,202,0.0,4.0,85,0.00,,,0.03,Wunderground v.1.15,2013-06-10 10:51:00,
2013-06-10 06:53:00,71.4,66.7,29.87,SSW,203,3.0,9.0,85,0.00,,,0.03,Wunderground v.1.15,2013-06-10 10:53:00,
2013-06-10 06:55:00,71.4,66.7,29.88,SSW,205,3.0,9.0,85,0.00,,,0.03,Wunderground v.1.15,2013-06-10 10:55:00,
2013-06-10 06:56:00,71.4,66.3,29.88,SSW,196,5.0,9.0,84,0.00,,,0.03,Wunderground v.1.15,2013-06-10 10:56:00,
2013-06-10 06:58:00,71.5,66.8,29.88,South,184,2.0,10.0,85,0.00,,,0.03,Wunderground v.1.15,2013-06-10 10:58:00,
2013-06-10 06:59:00,71.5,66.8,29.88,South,184,0.0,10.0,85,0.00,,,0.03,Wunderground v.1.15,2013-06-10 10:59:00,
2013-06-10 07:00:00,71.5,66.8,29.88,SSW,213,16.0,16.0,85,0.00,,,0.03,Wunderground v.1.15,2013-06-10 11:00:00,
2013-06-10 07:02:00,71.7,66.6,29.88,SSW,209,4.0,16.0,84,0.00,,,0.03,Wunderground v.1.15,2013-06-10 11:02:00,
2013-06-10 07:03:00,71.8,66.4,29.88,SW,227,5.0,16.0,83,0.00,,,0.03,Wunderground v.1.15,2013-06-10 11:03:00,
2013-06-10 07:04:00,71.9,66.5,29.88,SW,215,7.0,16.0,83,0.00,,,0.03,Wunderground v.1.15,2013-06-10 11:04:00,
2013-06-10 07:05:00,71.9,66.5,29.88,SSW,210,10.0,16.0,83,0.00,,,0.03,Wunderground v.1.15,2013-06-10 11:05:00,
2013-06-10 07:07:00,72.0,66.6,29.88,SSW,200,3.0,16.0,83,0.00,,,0.03,Wunderground v.1.15,2013-06-10 11:07:00,
2013-06-10 07:09:00,72.1,66.6,29.88,SSW,196,4.0,16.0,83,0.00,,,0.03,Wunderground v.1.15,2013-06-10 11:09:00,
2013-06-10 07:10:00,72.1,66.6,29.88,SW,227,6.0,12.0,83,0.00,,,0.03,Wunderground v.1.15,2013-06-10 11:10:00,
2013-06-10 07:13:00,72.1,66.6,29.88,SW,216,9.0,12.0,83,0.00,,,0.03,Wunderground v.1.15,2013-06-10 11:13:00,
2013-06-10 07:15:00,72.1,67.0,29.88,SW,226,5.0,12.0,84,0.00,,,0.03,Wunderground v.1.15,2013-06-10 11:15:00,
2013-06-10 07:18:00,72.0,66.9,29.88,SSW,207,3.0,12.0,84,0.00,,,0.03,Wunderground v.1.15,2013-06-10 11:18:00,
2013-06-10 07:19:00,72.0,66.9,29.88,SW,228,4.0,12.0,84,0.00,,,0.03,Wunderground v.1.15,2013-06-10 11:19:00,
2013-06-10 07:20:00,71.9,66.8,29.88,SSW,202,7.0,7.0,84,0.00,,,0.03,Wunderground v.1.15,2013-06-10 11:20:00,
2013-06-10 07:21:00,71.9,66.8,29.88,SW,217,6.0,12.0,84,0.00,,,0.03,Wunderground v.1.15,2013-06-10 11:21:00,
2013-06-10 07:22:00,71.9,66.8,29.88,South,186,3.0,12.0,84,0.00,,,0.03,Wunderground v.1.15,2013-06-10 11:22:00,
2013-06-10 07:23:00,71.9,66.8,29.88,SW,215,10.0,12.0,84,0.00,,,0.03,Wunderground v.1.15,2013-06-10 11:23:00,
2013-06-10 07:24:00,71.9,66.8,29.88,SW,222,4.0,12.0,84,0.00,,,0.03,Wunderground v.1.15,2013-06-10 11:24:00,
2013-06-10 07:25:00,71.8,67.0,29.88,South,180,3.0,12.0,85,0.00,,,0.03,Wunderground v.1.15,2013-06-10 11:25:00,
2013-06-10 07:26:00,71.8,67.0,29.88,SW,218,9.0,12.0,85,0.00,,,0.03,Wunderground v.1.15,2013-06-10 11:26:00,
2013-06-10 07:27:00,71.7,66.9,29.88,SW,217,4.0,12.0,85,0.00,,,0.03,Wunderground v.1.15,2013-06-10 11:27:00,
2013-06-10 07:29:00,71.5,67.4,29.88,SSW,212,2.0,12.0,87,0.00,,,0.04,Wunderground v.1.15,2013-06-10 11:29:00,
2013-06-10 07:30:00,71.3,66.9,29.87,SW,220,3.0,5.0,86,0.00,,,0.04,Wunderground v.1.15,2013-06-10 11:30:00,
2013-06-10 07:31:00,71.3,67.2,29.88,WSW,250,5.0,11.0,87,0.00,,,0.04,Wunderground v.1.15,2013-06-10 11:31:00,
2013-06-10 07:32:00,71.2,67.1,29.88,WSW,246,5.0,11.0,87,0.00,,,0.04,Wunderground v.1.15,2013-06-10 11:32:00,
2013-06-10 07:34:00,71.0,67.3,29.87,SW,232,3.0,11.0,88,0.00,,,0.04,Wunderground v.1.15,2013-06-10 11:34:00,
2013-06-10 07:35:00,70.9,66.8,29.87,SW,232,3.0,11.0,87,0.00,,,0.04,Wunderground v.1.15,2013-06-10 11:35:00,
2013-06-10 07:37:00,70.8,67.1,29.87,SW,230,2.0,11.0,88,0.00,,,0.04,Wunderground v.1.15,2013-06-10 11:37:00,
2013-06-10 07:38:00,70.7,67.0,29.87,SW,229,0.0,11.0,88,0.00,,,0.04,Wunderground v.1.15,2013-06-10 11:38:00,
2013-06-10 07:39:00,70.6,66.9,29.87,SW,223,7.0,11.0,88,0.00,,,0.04,Wunderground v.1.15,2013-06-10 11:39:00,
2013-06-10 07:40:00,70.5,67.1,29.87,SW,221,4.0,10.0,89,0.00,,,0.04,Wunderground v.1.15,2013-06-10 11:40:00,
2013-06-10 07:42:00,70.4,67.0,29.88,South,190,5.0,10.0,89,0.00,,,0.04,Wunderground v.1.15,2013-06-10 11:42:00,
2013-06-10 07:43:00,70.4,67.0,29.87,SW,219,4.0,10.0,89,0.00,,,0.04,Wunderground v.1.15,2013-06-10 11:43:00,
2013-06-10 07:44:00,70.4,67.0,29.88,SW,220,2.0,10.0,89,0.00,,,0.04,Wunderground v.1.15,2013-06-10 11:44:00,
2013-06-10 07:45:00,70.3,66.9,29.88,SW,216,4.0,10.0,89,0.04,,,0.05,Wunderground v.1.15,2013-06-10 11:45:00,
2013-06-10 07:47:00,70.2,67.1,29.87,SSW,207,3.0,10.0,90,0.24,,,0.05,Wunderground v.1.15,2013-06-10 11:47:00,
2013-06-10 07:49:00,70.1,67.0,29.87,SW,226,13.0,13.0,90,0.24,,,0.06,Wunderground v.1.15,2013-06-10 11:49:00,
2013-06-10 07:50:00,70.0,66.9,29.87,SSW,204,3.0,9.0,90,0.22,,,0.06,Wunderground v.1.15,2013-06-10 11:50:00,
2013-06-10 07:51:00,70.0,66.9,29.88,SW,216,5.0,10.0,90,0.22,,,0.07,Wunderground v.1.15,2013-06-10 11:51:00,
2013-06-10 07:52:00,69.9,67.2,29.88,SW,215,3.0,10.0,91,0.39,,,0.08,Wunderground v.1.15,2013-06-10 11:52:00,
2013-06-10 07:54:00,69.8,67.1,29.88,SW,215,0.0,10.0,91,0.56,,,0.09,Wunderground v.1.15,2013-06-10 11:54:00,
2013-06-10 07:55:00,69.8,67.4,29.88,SW,215,0.0,10.0,92,0.56,,,0.09,Wunderground v.1.15,2013-06-10 11:55:00,
2013-06-10 07:56:00,69.7,67.3,29.88,SW,215,0.0,10.0,92,0.46,,,0.11,Wunderground v.1.15,2013-06-10 11:56:00,
2013-06-10 07:57:00,69.7,67.3,29.88,SW,215,0.0,10.0,92,0.60,,,0.12,Wunderground v.1.15,2013-06-10 11:57:00,
2013-06-10 08:00:00,69.6,67.2,29.88,SW,215,0.0,2.0,92,0.61,,,0.13,Wunderground v.1.15,2013-06-10 12:00:00,
2013-06-10 08:02:00,69.5,67.4,29.88,SW,215,1.0,2.0,93,0.66,,,0.16,Wunderground v.1.15,2013-06-10 12:02:00,
2013-06-10 08:05:00,69.4,67.3,29.88,SW,215,0.0,2.0,93,0.21,,,0.17,Wunderground v.1.15,2013-06-10 12:05:00,
2013-06-10 08:07:00,69.3,67.2,29.88,SW,215,0.0,3.0,93,0.19,,,0.17,Wunderground v.1.15,2013-06-10 12:07:00,
2013-06-10 08:08:00,69.3,67.2,29.88,SW,215,0.0,3.0,93,0.16,,,0.17,Wunderground v.1.15,2013-06-10 12:08:00,
2013-06-10 08:10:00,69.2,67.4,29.88,SW,215,0.0,1.0,94,0.12,,,0.18,Wunderground v.1.15,2013-06-10 12:10:00,
2013-06-10 08:12:00,69.1,67.3,29.88,SW,215,0.0,1.0,94,0.12,,,0.18,Wunderground v.1.15,2013-06-10 12:12:00,
2013-06-10 08:13:00,69.1,67.3,29.88,SW,215,0.0,1.0,94,0.12,,,0.18,Wunderground v.1.15,2013-06-10 12:13:00,
2013-06-10 08:15:00,69.0,67.2,29.88,SW,215,0.0,1.0,94,0.10,,,0.18,Wunderground v.1.15,2013-06-10 12:15:00,
2013-06-10 08:17:00,69.0,67.2,29.88,WSW,249,1.0,2.0,94,0.07,,,0.18,Wunderground v.1.15,2013-06-10 12:17:00,
2013-06-10 08:18:00,69.0,67.2,29.88,WSW,249,0.0,2.0,94,0.07,,,0.18,Wunderground v.1.15,2013-06-10 12:18:00,
2013-06-10 08:19:00,69.0,67.2,29.87,WSW,249,0.0,2.0,94,0.06,,,0.18,Wunderground v.1.15,2013-06-10 12:19:00,
2013-06-10 08:20:00,68.9,67.4,29.88,WSW,249,0.0,0.0,95,0.05,,,0.18,Wunderground v.1.15,2013-06-10 12:20:00,
2013-06-10 08:21:00,69.0,67.5,29.88,WSW,249,0.0,0.0,95,0.05,,,0.18,Wunderground v.1.15,2013-06-10 12:21:00,
2013-06-10 08:22:00,68.9,67.4,29.88,WSW,249,0.0,0.0,95,0.05,,,0.18,Wunderground v.1.15,2013-06-10 12:22:00,
2013-06-10 08:23:00,68.9,67.4,29.88,WSW,249,0.0,0.0,95,0.04,,,0.18,Wunderground v.1.15,2013-06-10 12:23:00,
2013-06-10 08:24:00,68.9,67.4,29.88,WSW,249,0.0,1.0,95,0.04,,,0.18,Wunderground v.1.15,2013-06-10 12:24:00,
2013-06-10 08:25:00,68.9,67.4,29.88,WSW,249,0.0,1.0,95,0.04,,,0.18,Wunderground v.1.15,2013-06-10 12:25:00,
2013-06-10 08:26:00,68.9,67.4,29.88,WSW,249,0.0,1.0,95,0.04,,,0.18,Wunderground v.1.15,2013-06-10 12:26:00,
2013-06-10 08:28:00,68.9,67.4,29.88,WSW,249,0.0,1.0,95,0.00,,,0.18,Wunderground v.1.15,2013-06-10 12:28:00,
2013-06-10 08:30:00,68.9,67.4,29.89,WSW,248,0.0,2.0,95,0.00,,,0.18,Wunderground v.1.15,2013-06-10 12:30:00,
2013-06-10 08:31:00,68.9,67.4,29.89,SSW,210,6.0,6.0,95,0.00,,,0.18,Wunderground v.1.15,2013-06-10 12:31:00,
2013-06-10 08:32:00,68.9,67.4,29.88,SSW,213,3.0,10.0,95,0.00,,,0.18,Wunderground v.1.15,2013-06-10 12:32:00,
2013-06-10 08:33:00,68.9,67.4,29.88,SSW,209,4.0,10.0,95,0.00,,,0.18,Wunderground v.1.15,2013-06-10 12:33:00,
2013-06-10 08:34:00,68.9,67.4,29.88,SSW,209,9.0,10.0,95,0.00,,,0.18,Wunderground v.1.15,2013-06-10 12:34:00,
2013-06-10 08:35:00,68.9,67.4,29.88,SSW,205,2.0,10.0,95,0.00,,,0.18,Wunderground v.1.15,2013-06-10 12:35:00,
2013-06-10 08:36:00,68.9,67.4,29.88,SSW,208,9.0,10.0,95,0.00,,,0.19,Wunderground v.1.15,2013-06-10 12:36:00,
2013-06-10 08:37:00,69.0,67.5,29.88,WSW,250,5.0,13.0,95,0.00,,,0.19,Wunderground v.1.15,2013-06-10 12:37:00,
2013-06-10 08:38:00,69.0,67.2,29.88,SSW,195,3.0,13.0,94,0.36,,,0.20,Wunderground v.1.15,2013-06-10 12:38:00,
2013-06-10 08:39:00,69.0,67.2,29.88,SSW,213,4.0,13.0,94,0.33,,,0.20,Wunderground v.1.15,2013-06-10 12:39:00,
2013-06-10 08:40:00,69.0,67.2,29.88,SW,218,4.0,18.0,94,0.18,,,0.20,Wunderground v.1.15,2013-06-10 12:40:00,
2013-06-10 08:41:00,69.0,67.2,29.89,SW,221,2.0,18.0,94,0.15,,,0.20,Wunderground v.1.15,2013-06-10 12:41:00,
2013-06-10 08:42:00,69.0,67.2,29.89,SSW,213,6.0,18.0,94,0.12,,,0.20,Wunderground v.1.15,2013-06-10 12:42:00,
2013-06-10 08:44:00,69.0,67.2,29.89,SSW,211,3.0,18.0,94,0.09,,,0.21,Wunderground v.1.15,2013-06-10 12:44:00,
2013-06-10 08:46:00,68.9,67.1,29.89,SSW,212,13.0,18.0,94,0.09,,,0.21,Wunderground v.1.15,2013-06-10 12:46:00,
2013-06-10 08:47:00,68.9,67.1,29.90,WSW,244,2.0,18.0,94,0.26,,,0.22,Wunderground v.1.15,2013-06-10 12:47:00,
2013-06-10 08:49:00,68.9,67.1,29.90,WSW,240,3.0,18.0,94,0.20,,,0.22,Wunderground v.1.15,2013-06-10 12:49:00,
2013-06-10 08:50:00,68.8,67.0,29.90,WSW,240,1.0,6.0,94,0.15,,,0.22,Wunderground v.1.15,2013-06-10 12:50:00,
2013-06-10 08:51:00,68.8,67.0,29.90,SW,219,3.0,9.0,94,0.12,,,0.22,Wunderground v.1.15,2013-06-10 12:51:00,
2013-06-10 08:52:00,68.8,67.0,29.90,WSW,246,4.0,17.0,94,0.10,,,0.22,Wunderground v.1.15,2013-06-10 12:52:00,
2013-06-10 08:54:00,68.8,67.0,29.89,SW,214,3.0,17.0,94,0.08,,,0.22,Wunderground v.1.15,2013-06-10 12:54:00,
2013-06-10 08:55:00,68.8,67.3,29.89,SW,234,10.0,17.0,95,0.07,,,0.22,Wunderground v.1.15,2013-06-10 12:55:00,
2013-06-10 08:56:00,68.8,67.0,29.89,SSW,196,6.0,17.0,94,0.06,,,0.22,Wunderground v.1.15,2013-06-10 12:56:00,
2013-06-10 08:57:00,68.8,67.0,29.89,SSW,206,9.0,17.0,94,0.05,,,0.22,Wunderground v.1.15,2013-06-10 12:57:00,
2013-06-10 08:58:00,68.8,67.0,29.89,SSE,150,4.0,17.0,94,0.05,,,0.22,Wunderground v.1.15,2013-06-10 12:58:00,
2013-06-10 08:59:00,68.8,67.0,29.89,SSW,213,3.0,17.0,94,0.05,,,0.22,Wunderground v.1.15,2013-06-10 12:59:00,
2013-06-10 09:01:00,68.8,67.0,29.89,SW,222,3.0,20.0,94,0.04,,,0.22,Wunderground v.1.15,2013-06-10 13:01:00,
2013-06-10 09:02:00,68.8,67.0,29.89,SSW,211,3.0,20.0,94,0.04,,,0.22,Wunderground v.1.15,2013-06-10 13:02:00,
2013-06-10 09:03:00,68.8,67.0,29.89,SSW,205,12.0,20.0,94,0.04,,,0.22,Wunderground v.1.15,2013-06-10 13:03:00,
2013-06-10 09:04:00,68.8,67.0,29.89,SW,219,2.0,20.0,94,0.00,,,0.22,Wunderground v.1.15,2013-06-10 13:04:00,
2013-06-10 09:07:00,68.8,67.0,29.89,WSW,244,3.0,20.0,94,0.00,,,0.22,Wunderground v.1.15,2013-06-10 13:07:00,
2013-06-10 09:08:00,68.8,67.0,29.89,WSW,244,0.0,20.0,94,0.00,,,0.22,Wunderground v.1.15,2013-06-10 13:08:00,
2013-06-10 09:10:00,68.9,67.4,29.89,SW,225,0.0,5.0,95,0.00,,,0.22,Wunderground v.1.15,2013-06-10 13:10:00,
2013-06-10 09:12:00,68.9,67.4,29.89,SW,221,1.0,5.0,95,0.00,,,0.22,Wunderground v.1.15,2013-06-10 13:12:00,
2013-06-10 09:13:00,68.9,67.4,29.89,SW,221,1.0,5.0,95,0.00,,,0.22,Wunderground v.1.15,2013-06-10 13:13:00,
2013-06-10 09:14:00,68.9,67.4,29.89,SW,214,1.0,6.0,95,0.00,,,0.22,Wunderground v.1.15,2013-06-10 13:14:00,
2013-06-10 09:15:00,68.9,67.4,29.89,SW,214,1.0,6.0,95,0.00,,,0.22,Wunderground v.1.15,2013-06-10 13:15:00,
2013-06-10 09:18:00,68.9,67.4,29.89,SSW,205,5.0,9.0,95,0.00,,,0.22,Wunderground v.1.15,2013-06-10 13:18:00,
2013-06-10 09:19:00,68.9,67.4,29.89,SSW,211,2.0,9.0,95,0.00,,,0.22,Wunderground v.1.15,2013-06-10 13:19:00,
2013-06-10 09:20:00,68.9,67.4,29.89,SW,221,4.0,5.0,95,0.00,,,0.22,Wunderground v.1.15,2013-06-10 13:20:00,
2013-06-10 09:23:00,69.0,67.5,29.89,SW,225,2.0,9.0,95,0.00,,,0.22,Wunderground v.1.15,2013-06-10 13:23:00,
2013-06-10 09:24:00,69.0,67.5,29.89,SW,225,1.0,9.0,95,0.00,,,0.22,Wunderground v.1.15,2013-06-10 13:24:00,
2013-06-10 09:26:00,69.1,67.6,29.89,SW,215,5.0,9.0,95,0.00,,,0.22,Wunderground v.1.15,2013-06-10 13:26:00,
2013-06-10 09:28:00,69.1,67.6,29.90,SW,228,5.0,9.0,95,0.00,,,0.22,Wunderground v.1.15,2013-06-10 13:28:00,
2013-06-10 09:29:00,69.1,67.6,29.90,SE,141,4.0,13.0,95,0.00,,,0.22,Wunderground v.1.15,2013-06-10 13:29:00,
2013-06-10 09:32:00,69.1,67.6,29.90,SSW,213,3.0,9.0,95,0.00,,,0.23,Wunderground v.1.15,2013-06-10 13:32:00,
2013-06-10 09:33:00,69.1,67.6,29.90,SW,225,6.0,9.0,95,0.00,,,0.23,Wunderground v.1.15,2013-06-10 13:33:00,
2013-06-10 09:34:00,69.0,67.5,29.90,SSW,205,16.0,16.0,95,0.00,,,0.23,Wunderground v.1.15,2013-06-10 13:34:00,
2013-06-10 09:38:00,68.9,67.4,29.90,SW,232,2.0,16.0,95,0.00,,,0.23,Wunderground v.1.15,2013-06-10 13:38:00,
2013-06-10 09:39:00,68.9,67.4,29.91,South,187,2.0,16.0,95,0.00,,,0.23,Wunderground v.1.15,2013-06-10 13:39:00,
2013-06-10 09:40:00,68.9,67.4,29.91,South,188,1.0,4.0,95,0.00,,,0.23,Wunderground v.1.15,2013-06-10 13:40:00,
2013-06-10 09:44:00,68.9,67.4,29.91,WSW,244,2.0,10.0,95,0.00,,,0.23,Wunderground v.1.15,2013-06-10 13:44:00,
2013-06-10 09:45:00,68.9,67.4,29.91,WSW,244,1.0,10.0,95,0.00,,,0.23,Wunderground v.1.15,2013-06-10 13:45:00,
2013-06-10 09:49:00,68.9,67.4,29.90,SSW,213,1.0,10.0,95,0.00,,,0.23,Wunderground v.1.15,2013-06-10 13:49:00,
2013-06-10 09:50:00,69.0,67.5,29.90,SSW,213,1.0,3.0,95,0.00,,,0.23,Wunderground v.1.15,2013-06-10 13:50:00,
2013-06-10 09:52:00,69.0,67.5,29.90,SSW,200,5.0,7.0,95,0.00,,,0.23,Wunderground v.1.15,2013-06-10 13:52:00,
2013-06-10 09:54:00,69.1,67.3,29.90,SW,223,1.0,7.0,94,0.00,,,0.23,Wunderground v.1.15,2013-06-10 13:54:00,
2013-06-10 09:55:00,69.0,67.2,29.90,SSW,211,5.0,7.0,94,0.00,,,0.23,Wunderground v.1.15,2013-06-10 13:55:00,
2013-06-10 09:57:00,69.0,67.2,29.90,SSW,211,2.0,7.0,94,0.00,,,0.23,Wunderground v.1.15,2013-06-10 13:57:00,
2013-06-10 09:59:00,68.9,66.8,29.90,SSW,206,5.0,6.0,93,0.00,,,0.23,Wunderground v.1.15,2013-06-10 13:59:00,
2013-06-10 10:00:00,68.9,66.8,29.90,SW,221,5.0,6.0,93,0.00,,,0.23,Wunderground v.1.15,2013-06-10 14:00:00,
2013-06-10 10:02:00,68.9,67.1,29.90,West,273,4.0,9.0,94,0.00,,,0.23,Wunderground v.1.15,2013-06-10 14:02:00,
2013-06-10 10:04:00,68.9,66.8,29.90,South,190,3.0,10.0,93,0.00,,,0.23,Wunderground v.1.15,2013-06-10 14:04:00,
2013-06-10 10:05:00,68.8,66.7,29.90,SSW,195,2.0,10.0,93,0.00,,,0.23,Wunderground v.1.15,2013-06-10 14:05:00,
2013-06-10 10:07:00,68.8,66.4,29.90,SSW,213,3.0,10.0,92,0.00,,,0.23,Wunderground v.1.15,2013-06-10 14:07:00,
2013-06-10 10:10:00,68.8,66.7,29.90,SSW,211,3.0,3.0,93,0.00,,,0.23,Wunderground v.1.15,2013-06-10 14:10:00,
2013-06-10 10:13:00,68.8,66.7,29.90,SSW,209,1.0,9.0,93,0.00,,,0.23,Wunderground v.1.15,2013-06-10 14:13:00,
2013-06-10 10:15:00,68.8,66.7,29.90,SSW,207,4.0,9.0,93,0.00,,,0.23,Wunderground v.1.15,2013-06-10 14:15:00,
2013-06-10 10:16:00,68.9,66.8,29.90,SW,215,5.0,9.0,93,0.00,,,0.23,Wunderground v.1.15,2013-06-10 14:16:00,
2013-06-10 10:18:00,69.0,66.6,29.91,SW,230,2.0,11.0,92,0.00,,,0.23,Wunderground v.1.15,2013-06-10 14:18:00,
2013-06-10 10:20:00,69.0,66.6,29.91,SSW,199,2.0,8.0,92,0.00,,,0.23,Wunderground v.1.15,2013-06-10 14:20:00,
2013-06-10 10:21:00,69.0,66.6,29.91,SSW,198,6.0,8.0,92,0.00,,,0.23,Wunderground v.1.15,2013-06-10 14:21:00,
2013-06-10 10:23:00,69.1,66.7,29.91,SW,218,1.0,12.0,92,0.00,,,0.23,Wunderground v.1.15,2013-06-10 14:23:00,
2013-06-10 10:26:00,69.2,66.5,29.91,SW,218,10.0,12.0,91,0.00,,,0.23,Wunderground v.1.15,2013-06-10 14:26:00,
2013-06-10 10:27:00,69.3,66.6,29.91,SSW,198,2.0,12.0,91,0.00,,,0.23,Wunderground v.1.15,2013-06-10 14:27:00,
2013-06-10 10:28:00,69.3,66.9,29.91,SSW,201,4.0,12.0,92,0.00,,,0.23,Wunderground v.1.15,2013-06-10 14:28:00,
2013-06-10 10:31:00,69.4,67.3,29.91,SSW,201,3.0,4.0,93,0.00,,,0.23,Wunderground v.1.15,2013-06-10 14:31:00,
2013-06-10 10:32:00,69.4,67.0,29.91,SSW,199,9.0,10.0,92,0.00,,,0.23,Wunderground v.1.15,2013-06-10 14:32:00,
2013-06-10 10:34:00,69.3,66.9,29.91,SSW,211,2.0,10.0,92,0.00,,,0.23,Wunderground v.1.15,2013-06-10 14:34:00,
2013-06-10 10:36:00,69.3,66.9,29.91,SW,220,6.0,10.0,92,0.00,,,0.23,Wunderground v.1.15,2013-06-10 14:36:00,
2013-06-10 10:37:00,69.2,66.8,29.91,SSW,200,3.0,10.0,92,0.00,,,0.23,Wunderground v.1.15,2013-06-10 14:37:00,
2013-06-10 10:39:00,69.2,67.1,29.91,SW,225,4.0,10.0,93,0.00,,,0.23,Wunderground v.1.15,2013-06-10 14:39:00,
2013-06-10 10:42:00,69.3,67.2,29.91,SSW,197,1.0,7.0,93,0.00,,,0.23,Wunderground v.1.15,2013-06-10 14:42:00,
2013-06-10 10:45:00,69.4,67.3,29.91,SSW,209,4.0,7.0,93,0.00,,,0.23,Wunderground v.1.15,2013-06-10 14:45:00,
2013-06-10 10:47:00,69.5,67.4,29.91,SW,225,1.0,9.0,93,0.00,,,0.23,Wunderground v.1.15,2013-06-10 14:47:00,
2013-06-10 10:48:00,69.6,67.5,29.91,SW,225,1.0,9.0,93,0.00,,,0.23,Wunderground v.1.15,2013-06-10 14:48:00,
2013-06-10 10:50:00,69.7,67.3,29.92,SW,223,0.0,3.0,92,0.00,,,0.23,Wunderground v.1.15,2013-06-10 14:50:00,
2013-06-10 10:52:00,69.7,67.0,29.92,SSW,210,3.0,6.0,91,0.00,,,0.23,Wunderground v.1.15,2013-06-10 14:52:00,
2013-06-10 10:53:00,69.7,67.0,29.92,SSW,210,5.0,6.0,91,0.00,,,0.23,Wunderground v.1.15,2013-06-10 14:53:00,
2013-06-10 10:55:00,69.8,67.4,29.92,SSW,209,1.0,7.0,92,0.00,,,0.23,Wunderground v.1.15,2013-06-10 14:55:00,
2013-06-10 10:58:00,69.8,67.4,29.92,SSW,204,1.0,7.0,92,0.00,,,0.23,Wunderground v.1.15,2013-06-10 14:58:00,
2013-06-10 11:00:00,69.8,67.4,29.92,SSW,204,2.0,3.0,92,0.00,,,0.23,Wunderground v.1.15,2013-06-10 15:00:00,
2013-06-10 11:03:00,69.8,67.4,29.92,SW,216,2.0,5.0,92,0.00,,,0.23,Wunderground v.1.15,2013-06-10 15:03:00,
2013-06-10 11:05:00,69.9,67.5,29.92,SW,216,1.0,5.0,92,0.00,,,0.23,Wunderground v.1.15,2013-06-10 15:05:00,
2013-06-10 11:08:00,70.1,68.0,29.92,WSW,239,1.0,5.0,93,0.00,,,0.23,Wunderground v.1.15,2013-06-10 15:08:00,
2013-06-10 11:09:00,70.1,68.3,29.92,WSW,239,1.0,5.0,94,0.00,,,0.23,Wunderground v.1.15,2013-06-10 15:09:00,
2013-06-10 11:12:00,70.2,68.4,29.92,SSW,199,2.0,5.0,94,0.00,,,0.23,Wunderground v.1.15,2013-06-10 15:12:00,
2013-06-10 11:14:00,70.3,68.5,29.92,SW,220,1.0,5.0,94,0.00,,,0.23,Wunderground v.1.15,2013-06-10 15:14:00,
2013-06-10 11:15:00,70.4,68.6,29.92,SW,220,0.0,5.0,94,0.00,,,0.23,Wunderground v.1.15,2013-06-10 15:15:00,
2013-06-10 11:17:00,70.5,68.4,29.92,SW,219,3.0,6.0,93,0.00,,,0.23,Wunderground v.1.15,2013-06-10 15:17:00,
2013-06-10 11:19:00,70.6,68.8,29.92,SW,225,2.0,6.0,94,0.00,,,0.23,Wunderground v.1.15,2013-06-10 15:19:00,
2013-06-10 11:20:00,70.6,68.5,29.92,SW,225,0.0,4.0,93,0.00,,,0.23,Wunderground v.1.15,2013-06-10 15:20:00,
2013-06-10 11:22:00,70.7,68.6,29.91,SW,225,1.0,4.0,93,0.00,,,0.23,Wunderground v.1.15,2013-06-10 15:22:00,
2013-06-10 11:24:00,70.8,68.7,29.91,SW,225,2.0,5.0,93,0.00,,,0.23,Wunderground v.1.15,2013-06-10 15:24:00,
2013-06-10 11:26:00,71.0,68.9,29.91,SW,225,1.0,5.0,93,0.00,,,0.23,Wunderground v.1.15,2013-06-10 15:26:00,
2013-06-10 11:27:00,71.0,68.9,29.91,SSW,203,3.0,5.0,93,0.00,,,0.23,Wunderground v.1.15,2013-06-10 15:27:00,
2013-06-10 11:29:00,71.1,69.0,29.91,SSW,212,2.0,3.0,93,0.00,,,0.23,Wunderground v.1.15,2013-06-10 15:29:00,
2013-06-10 11:30:00,71.2,68.8,29.91,SSW,210,3.0,5.0,92,0.00,,,0.23,Wunderground v.1.15,2013-06-10 15:30:00,
2013-06-10 11:31:00,71.2,68.8,29.91,SSW,210,0.0,5.0,92,0.00,,,0.23,Wunderground v.1.15,2013-06-10 15:31:00,
2013-06-10 11:32:00,71.3,68.9,29.91,SSW,211,2.0,5.0,92,0.00,,,0.23,Wunderground v.1.15,2013-06-10 15:32:00,
2013-06-10 11:35:00,71.6,69.8,29.91,SSW,211,0.0,5.0,94,0.00,,,0.23,Wunderground v.1.15,2013-06-10 15:35:00,
2013-06-10 11:36:00,71.7,69.6,29.91,SSW,209,0.0,5.0,93,0.00,,,0.23,Wunderground v.1.15,2013-06-10 15:36:00,
2013-06-10 11:37:00,71.8,69.7,29.91,SSW,209,0.0,5.0,93,0.00,,,0.23,Wunderground v.1.15,2013-06-10 15:37:00,
2013-06-10 11:40:00,72.0,69.5,29.91,SW,229,0.0,2.0,92,0.00,,,0.23,Wunderground v.1.15,2013-06-10 15:40:00,
2013-06-10 11:42:00,72.2,69.1,29.91,WSW,237,9.0,10.0,90,0.00,,,0.23,Wunderground v.1.15,2013-06-10 15:42:00,
2013-06-10 11:43:00,72.2,69.1,29.91,WSW,244,3.0,10.0,90,0.00,,,0.23,Wunderground v.1.15,2013-06-10 15:43:00,
2013-06-10 11:45:00,72.4,69.3,29.91,South,177,1.0,10.0,90,0.00,,,0.23,Wunderground v.1.15,2013-06-10 15:45:00,
2013-06-10 11:47:00,72.6,69.5,29.92,SW,224,4.0,10.0,90,0.00,,,0.23,Wunderground v.1.15,2013-06-10 15:47:00,
2013-06-10 11:48:00,72.6,69.5,29.92,SW,224,2.0,10.0,90,0.00,,,0.23,Wunderground v.1.15,2013-06-10 15:48:00,
2013-06-10 11:49:00,72.6,69.5,29.92,SW,224,3.0,10.0,90,0.00,,,0.23,Wunderground v.1.15,2013-06-10 15:49:00,
2013-06-10 11:50:00,72.7,69.6,29.92,SW,224,1.0,3.0,90,0.00,,,0.23,Wunderground v.1.15,2013-06-10 15:50:00,
2013-06-10 11:52:00,72.7,69.3,29.92,SW,220,8.0,13.0,89,0.00,,,0.23,Wunderground v.1.15,2013-06-10 15:52:00,
2013-06-10 11:53:00,72.7,69.3,29.92,SSW,212,2.0,13.0,89,0.00,,,0.23,Wunderground v.1.15,2013-06-10 15:53:00,
2013-06-10 11:54:00,72.7,69.3,29.92,SSW,211,2.0,13.0,89,0.00,,,0.23,Wunderground v.1.15,2013-06-10 15:54:00,
2013-06-10 11:55:00,72.7,69.6,29.92,SW,215,3.0,13.0,90,0.00,,,0.23,Wunderground v.1.15,2013-06-10 15:55:00,
2013-06-10 11:57:00,72.6,68.8,29.92,SSW,209,4.0,13.0,88,0.00,,,0.23,Wunderground v.1.15,2013-06-10 15:57:00,
2013-06-10 11:58:00,72.6,68.8,29.92,SW,218,5.0,13.0,88,0.00,,,0.23,Wunderground v.1.15,2013-06-10 15:58:00,
2013-06-10 11:59:00,72.6,68.8,29.92,SW,215,1.0,13.0,88,0.00,,,0.23,Wunderground v.1.15,2013-06-10 15:59:00,
2013-06-10 12:00:00,72.6,68.8,29.92,SSW,206,2.0,7.0,88,0.00,,,0.23,Wunderground v.1.15,2013-06-10 16:00:00,
2013-06-10 12:02:00,72.7,69.6,29.92,SSW,203,3.0,7.0,90,0.00,,,0.23,Wunderground v.1.15,2013-06-10 16:02:00,
2013-06-10 12:04:00,72.8,69.0,29.92,SSW,204,1.0,7.0,88,0.00,,,0.23,Wunderground v.1.15,2013-06-10 16:04:00,
2013-06-10 12:05:00,72.8,69.0,29.92,SSW,204,3.0,7.0,88,0.00,,,0.23,Wunderground v.1.15,2013-06-10 16:05:00,
2013-06-10 12:07:00,72.8,68.7,29.92,SW,222,2.0,10.0,87,0.00,,,0.23,Wunderground v.1.15,2013-06-10 16:07:00,
2013-06-10 12:09:00,72.9,69.1,29.92,SSW,193,7.0,10.0,88,0.00,,,0.23,Wunderground v.1.15,2013-06-10 16:09:00,
2013-06-10 12:11:00,72.9,68.8,29.92,South,191,2.0,5.0,87,0.00,,,0.23,Wunderground v.1.15,2013-06-10 16:11:00,
2013-06-10 12:13:00,73.1,69.0,29.92,SSW,200,9.0,11.0,87,0.00,,,0.23,Wunderground v.1.15,2013-06-10 16:13:00,
2013-06-10 12:14:00,73.3,68.9,29.92,SW,218,0.0,11.0,86,0.00,,,0.23,Wunderground v.1.15,2013-06-10 16:14:00,
2013-06-10 12:16:00,73.5,69.4,29.92,South,180,1.0,11.0,87,0.00,,,0.23,Wunderground v.1.15,2013-06-10 16:16:00,
2013-06-10 12:18:00,73.8,69.3,29.92,SSW,211,1.0,11.0,86,0.00,,,0.23,Wunderground v.1.15,2013-06-10 16:18:00,
2013-06-10 12:19:00,74.0,69.9,29.92,SW,223,5.0,11.0,87,0.00,,,0.23,Wunderground v.1.15,2013-06-10 16:19:00,
2013-06-10 12:20:00,74.0,70.2,29.92,SW,223,1.0,4.0,88,0.00,,,0.23,Wunderground v.1.15,2013-06-10 16:20:00,
2013-06-10 12:23:00,74.7,70.9,29.92,WSW,249,2.0,7.0,88,0.00,,,0.23,Wunderground v.1.15,2013-06-10 16:23:00,
2013-06-10 12:25:00,75.0,70.2,29.92,SSW,200,1.0,10.0,85,0.00,,,0.23,Wunderground v.1.15,2013-06-10 16:25:00,
2013-06-10 12:28:00,75.3,69.8,29.92,SW,219,3.0,13.0,83,0.00,,,0.23,Wunderground v.1.15,2013-06-10 16:28:00,
2013-06-10 12:29:00,75.3,69.4,29.92,SW,219,3.0,13.0,82,0.00,,,0.23,Wunderground v.1.15,2013-06-10 16:29:00,
2013-06-10 12:30:00,75.2,69.7,29.92,SW,219,7.0,7.0,83,0.00,,,0.23,Wunderground v.1.15,2013-06-10 16:30:00,
2013-06-10 12:34:00,75.4,69.5,29.92,South,169,5.0,11.0,82,0.00,,,0.23,Wunderground v.1.15,2013-06-10 16:34:00,
2013-06-10 12:35:00,75.4,69.5,29.92,SW,214,3.0,11.0,82,0.00,,,0.23,Wunderground v.1.15,2013-06-10 16:35:00,
2013-06-10 12:39:00,75.4,68.8,29.92,SSW,211,2.0,12.0,80,0.00,,,0.23,Wunderground v.1.15,2013-06-10 16:39:00,
2013-06-10 12:40:00,75.4,69.9,29.92,SW,217,3.0,5.0,83,0.00,,,0.23,Wunderground v.1.15,2013-06-10 16:40:00,
2013-06-10 12:44:00,75.5,70.0,29.91,SW,215,5.0,6.0,83,0.00,,,0.23,Wunderground v.1.15,2013-06-10 16:44:00,
2013-06-10 12:45:00,75.3,68.7,29.92,SSW,209,5.0,12.0,80,0.00,,,0.23,Wunderground v.1.15,2013-06-10 16:45:00,
2013-06-10 12:46:00,75.2,69.0,29.91,WSW,248,1.0,12.0,81,0.00,,,0.23,Wunderground v.1.15,2013-06-10 16:46:00,
2013-06-10 12:49:00,75.4,69.5,29.92,SW,230,1.0,12.0,82,0.00,,,0.23,Wunderground v.1.15,2013-06-10 16:49:00,
2013-06-10 12:50:00,75.5,69.6,29.92,SSW,201,8.0,9.0,82,0.00,,,0.23,Wunderground v.1.15,2013-06-10 16:50:00,
2013-06-10 12:51:00,75.5,69.6,29.92,SSW,208,6.0,10.0,82,0.00,,,0.23,Wunderground v.1.15,2013-06-10 16:51:00,
2013-06-10 12:54:00,75.6,69.7,29.92,SSW,205,3.0,10.0,82,0.00,,,0.23,Wunderground v.1.15,2013-06-10 16:54:00,
2013-06-10 12:56:00,75.7,69.8,29.92,SW,230,0.0,10.0,82,0.00,,,0.23,Wunderground v.1.15,2013-06-10 16:56:00,
2013-06-10 12:57:00,75.8,70.3,29.92,SW,232,3.0,10.0,83,0.00,,,0.23,Wunderground v.1.15,2013-06-10 16:57:00,
2013-06-10 13:00:00,75.9,69.6,29.92,SW,225,2.0,4.0,81,0.00,,,0.23,Wunderground v.1.15,2013-06-10 17:00:00,
2013-06-10 13:01:00,75.9,68.5,29.92,SW,226,1.0,12.0,78,0.00,,,0.23,Wunderground v.1.15,2013-06-10 17:01:00,
2013-06-10 13:02:00,76.0,69.4,29.91,SSW,202,3.0,12.0,80,0.00,,,0.23,Wunderground v.1.15,2013-06-10 17:02:00,
2013-06-10 13:03:00,76.0,69.4,29.91,SSW,202,2.0,12.0,80,0.00,,,0.23,Wunderground v.1.15,2013-06-10 17:03:00,
2013-06-10 13:05:00,76.1,69.5,29.91,SSW,202,0.0,12.0,80,0.00,,,0.23,Wunderground v.1.15,2013-06-10 17:05:00,
2013-06-10 13:06:00,76.1,69.5,29.92,SSW,206,5.0,12.0,80,0.00,,,0.23,Wunderground v.1.15,2013-06-10 17:06:00,
2013-06-10 13:07:00,76.2,69.9,29.91,West,259,2.0,12.0,81,0.00,,,0.23,Wunderground v.1.15,2013-06-10 17:07:00,
2013-06-10 13:08:00,76.2,69.9,29.91,SW,224,3.0,12.0,81,0.00,,,0.23,Wunderground v.1.15,2013-06-10 17:08:00,
2013-06-10 13:10:00,76.3,69.3,29.91,SW,222,6.0,7.0,79,0.00,,,0.23,Wunderground v.1.15,2013-06-10 17:10:00,
2013-06-10 13:11:00,76.2,68.1,29.91,South,191,2.0,11.0,76,0.00,,,0.23,Wunderground v.1.15,2013-06-10 17:11:00,
2013-06-10 13:13:00,76.0,68.3,29.91,SW,215,6.0,11.0,77,0.00,,,0.23,Wunderground v.1.15,2013-06-10 17:13:00,
2013-06-10 13:15:00,75.8,68.8,29.91,SSW,205,7.0,15.0,79,0.00,,,0.23,Wunderground v.1.15,2013-06-10 17:15:00,
2013-06-10 13:16:00,75.8,68.4,29.91,SSW,192,3.0,15.0,78,0.00,,,0.23,Wunderground v.1.15,2013-06-10 17:16:00,
2013-06-10 13:18:00,75.8,69.2,29.91,SW,215,6.0,15.0,80,0.00,,,0.23,Wunderground v.1.15,2013-06-10 17:18:00,
2013-06-10 13:20:00,76.0,69.0,29.91,SSW,207,3.0,6.0,79,0.00,,,0.23,Wunderground v.1.15,2013-06-10 17:20:00,
2013-06-10 13:22:00,76.4,71.2,29.91,SSW,211,6.0,6.0,84,0.00,,,0.23,Wunderground v.1.15,2013-06-10 17:22:00,
2013-06-10 13:23:00,76.4,69.8,29.91,SSW,211,1.0,6.0,80,0.00,,,0.23,Wunderground v.1.15,2013-06-10 17:23:00,
2013-06-10 13:24:00,76.6,70.0,29.91,SSW,204,2.0,7.0,80,0.00,,,0.23,Wunderground v.1.15,2013-06-10 17:24:00,
2013-06-10 13:26:00,76.9,69.9,29.91,SSW,201,3.0,7.0,79,0.00,,,0.23,Wunderground v.1.15,2013-06-10 17:26:00,
2013-06-10 13:27:00,77.1,70.1,29.91,South,182,3.0,7.0,79,0.00,,,0.23,Wunderground v.1.15,2013-06-10 17:27:00,
2013-06-10 13:28:00,77.1,70.1,29.91,SSW,204,9.0,15.0,79,0.00,,,0.23,Wunderground v.1.15,2013-06-10 17:28:00,
2013-06-10 13:29:00,77.2,69.4,29.91,SSW,198,6.0,15.0,77,0.00,,,0.23,Wunderground v.1.15,2013-06-10 17:29:00,
2013-06-10 13:31:00,77.2,70.2,29.91,SSW,206,3.0,10.0,79,0.00,,,0.23,Wunderground v.1.15,2013-06-10 17:31:00,
2013-06-10 13:33:00,77.4,69.6,29.91,WSW,240,0.0,10.0,77,0.00,,,0.23,Wunderground v.1.15,2013-06-10 17:33:00,
2013-06-10 13:34:00,77.5,71.2,29.91,SSW,198,9.0,11.0,81,0.00,,,0.23,Wunderground v.1.15,2013-06-10 17:34:00,
2013-06-10 13:37:00,77.1,68.6,29.91,SSW,200,4.0,11.0,75,0.00,,,0.23,Wunderground v.1.15,2013-06-10 17:37:00,
2013-06-10 13:38:00,76.9,68.8,29.91,SW,221,5.0,11.0,76,0.00,,,0.23,Wunderground v.1.15,2013-06-10 17:38:00,
2013-06-10 13:39:00,76.9,69.1,29.91,South,180,6.0,11.0,77,0.00,,,0.23,Wunderground v.1.15,2013-06-10 17:39:00,
2013-06-10 13:40:00,76.9,69.5,29.91,SSW,206,1.0,5.0,78,0.00,,,0.23,Wunderground v.1.15,2013-06-10 17:40:00,
2013-06-10 13:42:00,77.1,70.1,29.91,SW,217,9.0,9.0,79,0.00,,,0.23,Wunderground v.1.15,2013-06-10 17:42:00,
2013-06-10 13:43:00,77.1,68.6,29.91,SW,214,2.0,9.0,75,0.00,,,0.23,Wunderground v.1.15,2013-06-10 17:43:00,
2013-06-10 13:44:00,77.2,69.0,29.91,SW,219,9.0,12.0,76,0.00,,,0.23,Wunderground v.1.15,2013-06-10 17:44:00,
2013-06-10 13:45:00,77.2,69.0,29.91,SSW,195,9.0,12.0,76,0.00,,,0.23,Wunderground v.1.15,2013-06-10 17:45:00,
2013-06-10 13:48:00,77.3,69.1,29.91,SSW,204,4.0,15.0,76,0.00,,,0.23,Wunderground v.1.15,2013-06-10 17:48:00,
2013-06-10 13:49:00,77.4,69.2,29.91,SSW,205,9.0,15.0,76,0.00,,,0.23,Wunderground v.1.15,2013-06-10 17:49:00,
2013-06-10 13:50:00,77.5,70.5,29.91,SSW,204,7.0,7.0,79,0.00,,,0.23,Wunderground v.1.15,2013-06-10 17:50:00,
2013-06-10 13:53:00,77.8,70.0,29.91,SW,216,1.0,11.0,77,0.00,,,0.23,Wunderground v.1.15,2013-06-10 17:53:00,
2013-06-10 13:54:00,77.9,70.1,29.91,SSW,211,2.0,11.0,77,0.00,,,0.23,Wunderground v.1.15,2013-06-10 17:54:00,
2013-06-10 13:55:00,78.1,70.7,29.91,SSW,211,1.0,11.0,78,0.00,,,0.23,Wunderground v.1.15,2013-06-10 17:55:00,
2013-06-10 13:59:00,78.4,70.2,29.91,SSW,205,4.0,11.0,76,0.00,,,0.23,Wunderground v.1.15,2013-06-10 17:59:00,
2013-06-10 14:00:00,78.5,69.5,29.91,SSW,206,3.0,4.0,74,0.00,,,0.23,Wunderground v.1.15,2013-06-10 18:00:00,
2013-06-10 14:02:00,78.5,69.9,29.90,SSW,207,4.0,6.0,75,0.00,,,0.23,Wunderground v.1.15,2013-06-10 18:02:00,
2013-06-10 14:04:00,78.4,70.2,29.90,SSW,211,7.0,9.0,76,0.00,,,0.23,Wunderground v.1.15,2013-06-10 18:04:00,
2013-06-10 14:05:00,78.2,68.8,29.90,SSW,207,6.0,9.0,73,0.00,,,0.23,Wunderground v.1.15,2013-06-10 18:05:00,
2013-06-10 14:07:00,78.1,69.5,29.90,SSW,205,4.0,9.0,75,0.00,,,0.23,Wunderground v.1.15,2013-06-10 18:07:00,
2013-06-10 14:09:00,78.0,69.4,29.90,South,190,5.0,9.0,75,0.00,,,0.23,Wunderground v.1.15,2013-06-10 18:09:00,
2013-06-10 14:10:00,77.9,69.3,29.90,SSW,207,4.0,6.0,75,0.00,,,0.23,Wunderground v.1.15,2013-06-10 18:10:00,
2013-06-10 14:12:00,78.0,70.6,29.90,SSW,211,3.0,6.0,78,0.00,,,0.23,Wunderground v.1.15,2013-06-10 18:12:00,
2013-06-10 14:13:00,78.0,70.2,29.90,SSW,210,1.0,6.0,77,0.00,,,0.23,Wunderground v.1.15,2013-06-10 18:13:00,
2013-06-10 14:14:00,78.0,69.4,29.90,SW,219,2.0,6.0,75,0.00,,,0.23,Wunderground v.1.15,2013-06-10 18:14:00,
2013-06-10 14:15:00,78.0,69.8,29.90,SW,218,3.0,6.0,76,0.00,,,0.23,Wunderground v.1.15,2013-06-10 18:15:00,
2013-06-10 14:18:00,78.0,69.4,29.89,SSW,207,3.0,7.0,75,0.00,,,0.23,Wunderground v.1.15,2013-06-10 18:18:00,
2013-06-10 14:20:00,77.8,69.6,29.90,SSW,204,3.0,5.0,76,0.00,,,0.23,Wunderground v.1.15,2013-06-10 18:20:00,
2013-06-10 14:21:00,77.7,69.9,29.89,SSW,196,5.0,9.0,77,0.00,,,0.23,Wunderground v.1.15,2013-06-10 18:21:00,
2013-06-10 14:23:00,77.5,69.3,29.90,SW,217,3.0,9.0,76,0.00,,,0.23,Wunderground v.1.15,2013-06-10 18:23:00,
2013-06-10 14:25:00,77.4,70.0,29.89,SSW,210,0.0,9.0,78,0.00,,,0.23,Wunderground v.1.15,2013-06-10 18:25:00,
2013-06-10 14:26:00,77.5,70.8,29.89,SSW,210,1.0,9.0,80,0.00,,,0.23,Wunderground v.1.15,2013-06-10 18:26:00,
2013-06-10 14:27:00,77.7,71.0,29.89,SSW,210,0.0,9.0,80,0.00,,,0.23,Wunderground v.1.15,2013-06-10 18:27:00,
2013-06-10 14:28:00,77.8,69.6,29.89,SSW,203,7.0,10.0,76,0.00,,,0.23,Wunderground v.1.15,2013-06-10 18:28:00,
2013-06-10 14:29:00,77.9,69.7,29.89,SSW,205,4.0,10.0,76,0.00,,,0.23,Wunderground v.1.15,2013-06-10 18:29:00,
2013-06-10 14:32:00,78.7,71.3,29.89,NW,310,2.0,4.0,78,0.00,,,0.23,Wunderground v.1.15,2013-06-10 18:32:00,
2013-06-10 14:33:00,78.7,70.1,29.89,NW,319,1.0,4.0,75,0.00,,,0.23,Wunderground v.1.15,2013-06-10 18:33:00,
2013-06-10 14:34:00,79.0,71.6,29.89,SSW,207,4.0,7.0,78,0.00,,,0.23,Wunderground v.1.15,2013-06-10 18:34:00,
2013-06-10 14:35:00,79.1,70.1,29.89,SSW,207,5.0,7.0,74,0.00,,,0.23,Wunderground v.1.15,2013-06-10 18:35:00,
2013-06-10 14:37:00,79.4,70.4,29.89,SSW,207,3.0,11.0,74,0.00,,,0.23,Wunderground v.1.15,2013-06-10 18:37:00,
2013-06-10 14:38:00,79.4,70.0,29.89,SSW,213,5.0,11.0,73,0.00,,,0.23,Wunderground v.1.15,2013-06-10 18:38:00,
2013-06-10 14:39:00,79.5,70.1,29.89,SW,228,5.0,11.0,73,0.00,,,0.23,Wunderground v.1.15,2013-06-10 18:39:00,
2013-06-10 14:40:00,79.6,71.0,29.89,SSW,207,5.0,5.0,75,0.00,,,0.23,Wunderground v.1.15,2013-06-10 18:40:00,
2013-06-10 14:42:00,79.6,69.0,29.89,SW,233,5.0,12.0,70,0.00,,,0.23,Wunderground v.1.15,2013-06-10 18:42:00,
2013-06-10 14:43:00,79.4,69.6,29.89,SSW,210,4.0,12.0,72,0.00,,,0.23,Wunderground v.1.15,2013-06-10 18:43:00,
2013-06-10 14:44:00,79.4,69.2,29.89,SSW,209,2.0,12.0,71,0.00,,,0.23,Wunderground v.1.15,2013-06-10 18:44:00,
2013-06-10 14:46:00,79.4,70.0,29.89,SSW,210,0.0,12.0,73,0.00,,,0.23,Wunderground v.1.15,2013-06-10 18:46:00,
2013-06-10 14:47:00,79.4,70.0,29.89,SW,223,9.0,12.0,73,0.00,,,0.23,Wunderground v.1.15,2013-06-10 18:47:00,
2013-06-10 14:48:00,79.3,69.9,29.89,SSW,202,7.0,12.0,73,0.00,,,0.23,Wunderground v.1.15,2013-06-10 18:48:00,
2013-06-10 14:50:00,78.9,69.1,29.89,SW,217,2.0,4.0,72,0.00,,,0.23,Wunderground v.1.15,2013-06-10 18:50:00,
2013-06-10 14:52:00,78.6,70.0,29.88,SW,220,6.0,6.0,75,0.00,,,0.23,Wunderground v.1.15,2013-06-10 18:52:00,
2013-06-10 14:53:00,78.5,69.9,29.88,SW,219,3.0,6.0,75,0.00,,,0.23,Wunderground v.1.15,2013-06-10 18:53:00,
2013-06-10 14:54:00,78.4,69.8,29.88,SSW,208,4.0,6.0,75,0.00,,,0.23,Wunderground v.1.15,2013-06-10 18:54:00,
2013-06-10 14:55:00,78.3,69.3,29.89,SW,221,3.0,11.0,74,0.00,,,0.23,Wunderground v.1.15,2013-06-10 18:55:00,
2013-06-10 14:58:00,78.6,69.6,29.88,SSW,213,4.0,11.0,74,0.00,,,0.23,Wunderground v.1.15,2013-06-10 18:58:00,
2013-06-10 14:59:00,78.7,69.7,29.88,South,184,2.0,11.0,74,0.00,,,0.23,Wunderground v.1.15,2013-06-10 18:59:00,
2013-06-10 15:00:00,78.8,71.0,29.88,South,187,4.0,4.0,77,0.00,,,0.23,Wunderground v.1.15,2013-06-10 19:00:00,
2013-06-10 15:03:00,79.4,69.2,29.88,SSW,207,3.0,12.0,71,0.00,,,0.23,Wunderground v.1.15,2013-06-10 19:03:00,
2013-06-10 15:04:00,79.3,68.7,29.88,SW,216,12.0,14.0,70,0.00,,,0.23,Wunderground v.1.15,2013-06-10 19:04:00,
2013-06-10 15:05:00,79.2,69.4,29.88,SSW,211,5.0,14.0,72,0.00,,,0.23,Wunderground v.1.15,2013-06-10 19:05:00,
2013-06-10 15:08:00,78.8,68.6,29.88,SW,217,13.0,14.0,71,0.00,,,0.23,Wunderground v.1.15,2013-06-10 19:08:00,
2013-06-10 15:09:00,78.7,68.5,29.88,SSW,210,9.0,14.0,71,0.00,,,0.23,Wunderground v.1.15,2013-06-10 19:09:00,
2013-06-10 15:10:00,78.7,68.5,29.88,SSW,202,10.0,15.0,71,0.00,,,0.23,Wunderground v.1.15,2013-06-10 19:10:00,
2013-06-10 15:13:00,78.7,68.5,29.88,SW,221,9.0,15.0,71,0.00,,,0.23,Wunderground v.1.15,2013-06-10 19:13:00,
2013-06-10 15:14:00,78.7,68.9,29.88,SSW,196,2.0,15.0,72,0.00,,,0.23,Wunderground v.1.15,2013-06-10 19:14:00,
2013-06-10 15:16:00,78.8,68.6,29.88,SSW,207,9.0,15.0,71,0.00,,,0.23,Wunderground v.1.15,2013-06-10 19:16:00,
2013-06-10 15:18:00,79.0,68.4,29.88,SSW,199,1.0,15.0,70,0.00,,,0.23,Wunderground v.1.15,2013-06-10 19:18:00,
2013-06-10 15:19:00,79.0,68.8,29.88,SSW,199,3.0,15.0,71,0.00,,,0.23,Wunderground v.1.15,2013-06-10 19:19:00,
2013-06-10 15:20:00,79.1,70.1,29.88,SSW,213,5.0,6.0,74,0.00,,,0.23,Wunderground v.1.15,2013-06-10 19:20:00,
2013-06-10 15:21:00,79.2,69.4,29.88,SSW,203,5.0,7.0,72,0.00,,,0.23,Wunderground v.1.15,2013-06-10 19:21:00,
2013-06-10 15:23:00,79.1,68.1,29.88,SSW,212,5.0,12.0,69,0.00,,,0.23,Wunderground v.1.15,2013-06-10 19:23:00,
2013-06-10 15:24:00,79.1,68.5,29.88,SSW,205,6.0,12.0,70,0.00,,,0.23,Wunderground v.1.15,2013-06-10 19:24:00,
2013-06-10 15:25:00,79.1,68.9,29.88,South,180,3.0,12.0,71,0.00,,,0.23,Wunderground v.1.15,2013-06-10 19:25:00,
2013-06-10 15:26:00,78.9,68.7,29.88,SW,215,3.0,12.0,71,0.00,,,0.23,Wunderground v.1.15,2013-06-10 19:26:00,
2013-06-10 15:29:00,78.7,69.3,29.88,SW,217,3.0,12.0,73,0.00,,,0.23,Wunderground v.1.15,2013-06-10 19:29:00,
2013-06-10 15:30:00,78.7,68.9,29.88,SW,217,2.0,4.0,72,0.00,,,0.23,Wunderground v.1.15,2013-06-10 19:30:00,
2013-06-10 15:31:00,78.7,68.5,29.88,South,176,6.0,10.0,71,0.00,,,0.23,Wunderground v.1.15,2013-06-10 19:31:00,
2013-06-10 15:34:00,79.1,69.7,29.88,SSW,192,3.0,10.0,73,0.00,,,0.23,Wunderground v.1.15,2013-06-10 19:34:00,
2013-06-10 15:35:00,79.3,69.9,29.88,SW,227,6.0,10.0,73,0.00,,,0.23,Wunderground v.1.15,2013-06-10 19:35:00,
2013-06-10 15:36:00,79.5,70.9,29.88,SW,223,3.0,10.0,75,0.00,,,0.23,Wunderground v.1.15,2013-06-10 19:36:00,
2013-06-10 15:37:00,79.6,70.6,29.88,SSW,198,10.0,10.0,74,0.00,,,0.23,Wunderground v.1.15,2013-06-10 19:37:00,
2013-06-10 15:39:00,79.9,71.7,29.87,South,187,3.0,3.0,76,0.00,,,0.23,Wunderground v.1.15,2013-06-10 19:39:00,
2013-06-10 15:40:00,79.9,71.7,29.87,SSW,198,4.0,4.0,76,0.00,,,0.23,Wunderground v.1.15,2013-06-10 19:40:00,
2013-06-10 15:41:00,80.1,71.8,29.87,SSW,207,6.0,9.0,76,0.00,,,0.23,Wunderground v.1.15,2013-06-10 19:41:00,
2013-06-10 15:42:00,80.2,69.5,29.87,SW,215,5.0,9.0,70,0.00,,,0.23,Wunderground v.1.15,2013-06-10 19:42:00,
2013-06-10 15:44:00,80.0,69.7,29.87,SSW,198,4.0,9.0,71,0.00,,,0.23,Wunderground v.1.15,2013-06-10 19:44:00,
2013-06-10 15:45:00,80.0,69.7,29.87,SSW,198,2.0,9.0,71,0.00,,,0.23,Wunderground v.1.15,2013-06-10 19:45:00,
2013-06-10 15:47:00,80.1,69.4,29.87,SW,216,3.0,9.0,70,0.00,,,0.23,Wunderground v.1.15,2013-06-10 19:47:00,
2013-06-10 15:48:00,80.1,69.4,29.87,SW,226,9.0,12.0,70,0.00,,,0.23,Wunderground v.1.15,2013-06-10 19:48:00,
2013-06-10 15:50:00,80.2,69.1,29.87,SW,215,5.0,5.0,69,0.00,,,0.23,Wunderground v.1.15,2013-06-10 19:50:00,
2013-06-10 15:52:00,80.1,69.0,29.87,SSW,207,7.0,11.0,69,0.00,,,0.23,Wunderground v.1.15,2013-06-10 19:52:00,
2013-06-10 15:53:00,80.1,68.6,29.86,SSW,213,6.0,14.0,68,0.00,,,0.23,Wunderground v.1.15,2013-06-10 19:53:00,
2013-06-10 15:55:00,80.1,68.6,29.87,SSW,210,6.0,14.0,68,0.00,,,0.23,Wunderground v.1.15,2013-06-10 19:55:00,
2013-06-10 15:57:00,80.2,69.1,29.87,SSW,211,6.0,14.0,69,0.00,,,0.23,Wunderground v.1.15,2013-06-10 19:57:00,
2013-06-10 15:58:00,80.2,69.1,29.87,SW,217,6.0,14.0,69,0.00,,,0.23,Wunderground v.1.15,2013-06-10 19:58:00,
2013-06-10 16:00:00,80.3,69.6,29.87,WSW,253,5.0,10.0,70,0.00,,,0.23,Wunderground v.1.15,2013-06-10 20:00:00,
2013-06-10 16:03:00,80.2,69.5,29.86,SSW,194,3.0,13.0,70,0.00,,,0.23,Wunderground v.1.15,2013-06-10 20:03:00,
2013-06-10 16:04:00,80.3,70.4,29.85,SSW,201,1.0,13.0,72,0.00,,,0.23,Wunderground v.1.15,2013-06-10 20:04:00,
2013-06-10 16:05:00,80.4,68.9,29.85,SSW,212,1.0,13.0,68,0.00,,,0.23,Wunderground v.1.15,2013-06-10 20:05:00,
2013-06-10 16:08:00,80.5,70.2,29.85,SW,216,2.0,13.0,71,0.00,,,0.23,Wunderground v.1.15,2013-06-10 20:08:00,
2013-06-10 16:09:00,80.5,69.8,29.85,SSW,210,3.0,13.0,70,0.00,,,0.23,Wunderground v.1.15,2013-06-10 20:09:00,
2013-06-10 16:12:00,80.7,70.4,29.86,SSW,196,7.0,13.0,71,0.00,,,0.23,Wunderground v.1.15,2013-06-10 20:12:00,
2013-06-10 16:13:00,80.7,68.3,29.86,SSW,210,4.0,13.0,66,0.00,,,0.23,Wunderground v.1.15,2013-06-10 20:13:00,
2013-06-10 16:14:00,80.8,69.2,29.86,SSW,210,6.0,13.0,68,0.00,,,0.23,Wunderground v.1.15,2013-06-10 20:14:00,
2013-06-10 16:18:00,80.8,69.2,29.85,SSW,205,8.0,14.0,68,0.00,,,0.23,Wunderground v.1.15,2013-06-10 20:18:00,
2013-06-10 16:19:00,80.6,68.2,29.85,SSW,211,4.0,14.0,66,0.00,,,0.23,Wunderground v.1.15,2013-06-10 20:19:00,
2013-06-10 16:23:00,80.5,67.6,29.85,SW,217,3.0,8.0,65,0.00,,,0.23,Wunderground v.1.15,2013-06-10 20:23:00,
2013-06-10 16:24:00,80.5,67.6,29.85,SSW,207,4.0,8.0,65,0.00,,,0.23,Wunderground v.1.15,2013-06-10 20:24:00,
2013-06-10 16:25:00,80.5,68.5,29.85,South,173,2.0,9.0,67,0.00,,,0.23,Wunderground v.1.15,2013-06-10 20:25:00,
2013-06-10 16:28:00,80.6,68.6,29.85,South,179,8.0,10.0,67,0.00,,,0.23,Wunderground v.1.15,2013-06-10 20:28:00,
2013-06-10 16:29:00,80.6,67.3,29.85,SSW,210,3.0,10.0,64,0.00,,,0.23,Wunderground v.1.15,2013-06-10 20:29:00,
2013-06-10 16:30:00,80.6,67.3,29.85,SSW,204,5.0,5.0,64,0.00,,,0.23,Wunderground v.1.15,2013-06-10 20:30:00,
2013-06-10 16:34:00,80.6,68.2,29.84,SW,215,7.0,9.0,66,0.00,,,0.23,Wunderground v.1.15,2013-06-10 20:34:00,
2013-06-10 16:35:00,80.7,67.8,29.84,SSW,206,3.0,9.0,65,0.00,,,0.23,Wunderground v.1.15,2013-06-10 20:35:00,
2013-06-10 16:36:00,80.7,68.7,29.84,SSW,207,3.0,9.0,67,0.00,,,0.23,Wunderground v.1.15,2013-06-10 20:36:00,
2013-06-10 16:39:00,80.7,67.8,29.84,SW,216,9.0,17.0,65,0.00,,,0.23,Wunderground v.1.15,2013-06-10 20:39:00,
2013-06-10 16:40:00,80.6,68.6,29.84,South,191,4.0,6.0,67,0.00,,,0.23,Wunderground v.1.15,2013-06-10 20:40:00,
2013-06-10 16:41:00,80.6,67.7,29.84,SSW,207,5.0,6.0,65,0.00,,,0.23,Wunderground v.1.15,2013-06-10 20:41:00,
2013-06-10 16:44:00,80.5,65.8,29.84,SSW,209,4.0,11.0,61,0.00,,,0.23,Wunderground v.1.15,2013-06-10 20:44:00,
2013-06-10 16:45:00,80.5,66.7,29.84,SSW,209,2.0,11.0,63,0.00,,,0.23,Wunderground v.1.15,2013-06-10 20:45:00,
2013-06-10 16:46:00,80.5,66.7,29.84,SW,218,5.0,12.0,63,0.00,,,0.23,Wunderground v.1.15,2013-06-10 20:46:00,
2013-06-10 16:49:00,80.5,68.1,29.84,South,184,5.0,12.0,66,0.00,,,0.23,Wunderground v.1.15,2013-06-10 20:49:00,
2013-06-10 16:50:00,80.6,67.3,29.84,SSW,212,5.0,5.0,64,0.00,,,0.23,Wunderground v.1.15,2013-06-10 20:50:00,
2013-06-10 16:51:00,80.7,67.8,29.84,South,190,3.0,10.0,65,0.00,,,0.23,Wunderground v.1.15,2013-06-10 20:51:00,
2013-06-10 16:55:00,80.7,68.3,29.84,SW,231,0.0,12.0,66,0.00,,,0.23,Wunderground v.1.15,2013-06-10 20:55:00,
2013-06-10 16:57:00,80.6,67.3,29.84,SSW,205,4.0,13.0,64,0.00,,,0.23,Wunderground v.1.15,2013-06-10 20:57:00,
2013-06-10 17:00:00,80.5,68.5,29.84,SSW,192,4.0,6.0,67,0.00,,,0.23,Wunderground v.1.15,2013-06-10 21:00:00,
2013-06-10 17:01:00,80.5,68.1,29.84,SSW,192,1.0,6.0,66,0.00,,,0.23,Wunderground v.1.15,2013-06-10 21:01:00,
2013-06-10 17:02:00,80.5,69.0,29.84,SSW,206,0.0,6.0,68,0.00,,,0.23,Wunderground v.1.15,2013-06-10 21:02:00,
2013-06-10 17:03:00,80.5,69.0,29.84,SSW,206,0.0,6.0,68,0.00,,,0.23,Wunderground v.1.15,2013-06-10 21:03:00,
2013-06-10 17:05:00,80.6,69.5,29.84,SSW,209,2.0,9.0,69,0.00,,,0.23,Wunderground v.1.15,2013-06-10 21:05:00,
2013-06-10 17:06:00,80.7,70.8,29.84,SSW,209,2.0,9.0,72,0.00,,,0.23,Wunderground v.1.15,2013-06-10 21:06:00,
2013-06-10 17:07:00,80.8,68.8,29.84,SW,229,2.0,9.0,67,0.00,,,0.23,Wunderground v.1.15,2013-06-10 21:07:00,
2013-06-10 17:08:00,80.8,68.8,29.84,SW,228,1.0,9.0,67,0.00,,,0.23,Wunderground v.1.15,2013-06-10 21:08:00,
2013-06-10 17:11:00,80.9,68.9,29.84,SW,215,0.0,6.0,67,0.00,,,0.23,Wunderground v.1.15,2013-06-10 21:11:00,
2013-06-10 17:12:00,81.0,68.6,29.84,SW,215,3.0,6.0,66,0.00,,,0.23,Wunderground v.1.15,2013-06-10 21:12:00,
2013-06-10 17:13:00,81.1,70.4,29.84,WNW,292,2.0,6.0,70,0.00,,,0.23,Wunderground v.1.15,2013-06-10 21:13:00,
2013-06-10 17:16:00,81.2,69.2,29.85,SSW,200,3.0,9.0,67,0.00,,,0.23,Wunderground v.1.15,2013-06-10 21:16:00,
2013-06-10 17:17:00,81.2,68.8,29.84,SW,225,1.0,9.0,66,0.00,,,0.23,Wunderground v.1.15,2013-06-10 21:17:00,
2013-06-10 17:18:00,81.1,69.1,29.85,SSW,199,4.0,9.0,67,0.00,,,0.23,Wunderground v.1.15,2013-06-10 21:18:00,
2013-06-10 17:22:00,81.2,70.1,29.85,SSW,211,0.0,9.0,69,0.00,,,0.23,Wunderground v.1.15,2013-06-10 21:22:00,
2013-06-10 17:23:00,81.2,70.9,29.85,SSW,211,0.0,9.0,71,0.00,,,0.23,Wunderground v.1.15,2013-06-10 21:23:00,
2013-06-10 17:27:00,81.7,70.1,29.84,SSW,211,2.0,9.0,68,0.00,,,0.23,Wunderground v.1.15,2013-06-10 21:27:00,
2013-06-10 17:28:00,81.7,70.1,29.84,SSW,209,7.0,9.0,68,0.00,,,0.23,Wunderground v.1.15,2013-06-10 21:28:00,
2013-06-10 17:29:00,81.7,70.1,29.84,SW,216,3.0,9.0,68,0.00,,,0.23,Wunderground v.1.15,2013-06-10 21:29:00,
2013-06-10 17:32:00,81.7,68.8,29.84,SSW,205,1.0,5.0,65,0.00,,,0.23,Wunderground v.1.15,2013-06-10 21:32:00,
2013-06-10 17:33:00,81.6,68.7,29.84,SSW,206,0.0,5.0,65,0.00,,,0.23,Wunderground v.1.15,2013-06-10 21:33:00,
2013-06-10 17:35:00,81.6,68.7,29.84,SSW,207,6.0,6.0,65,0.00,,,0.23,Wunderground v.1.15,2013-06-10 21:35:00,
2013-06-10 17:37:00,81.4,68.1,29.84,South,187,1.0,7.0,64,0.00,,,0.23,Wunderground v.1.15,2013-06-10 21:37:00,
2013-06-10 17:38:00,81.4,68.1,29.84,WSW,242,9.0,9.0,64,0.00,,,0.23,Wunderground v.1.15,2013-06-10 21:38:00,
2013-06-10 17:43:00,80.9,67.1,29.84,SSW,206,6.0,11.0,63,0.00,,,0.23,Wunderground v.1.15,2013-06-10 21:43:00,
2013-06-10 17:44:00,80.8,67.5,29.84,SW,220,1.0,11.0,64,0.00,,,0.23,Wunderground v.1.15,2013-06-10 21:44:00,
2013-06-10 17:48:00,80.6,67.3,29.84,SW,220,0.0,11.0,64,0.00,,,0.23,Wunderground v.1.15,2013-06-10 21:48:00,
2013-06-10 17:49:00,80.6,67.7,29.84,SW,219,2.0,11.0,65,0.00,,,0.23,Wunderground v.1.15,2013-06-10 21:49:00,
2013-06-10 17:53:00,80.7,67.4,29.84,WSW,241,2.0,9.0,64,0.00,,,0.23,Wunderground v.1.15,2013-06-10 21:53:00,
2013-06-10 17:54:00,80.7,68.3,29.84,SSW,209,7.0,9.0,66,0.00,,,0.23,Wunderground v.1.15,2013-06-10 21:54:00,
2013-06-10 17:58:00,80.7,68.7,29.84,South,186,4.0,12.0,67,0.00,,,0.23,Wunderground v.1.15,2013-06-10 21:58:00,
2013-06-10 17:59:00,80.7,67.4,29.84,SSE,151,5.0,12.0,64,0.00,,,0.23,Wunderground v.1.15,2013-06-10 21:59:00,
2013-06-10 18:03:00,80.6,68.6,29.83,SW,214,5.0,10.0,67,0.00,,,0.23,Wunderground v.1.15,2013-06-10 22:03:00,
2013-06-10 18:04:00,80.5,67.2,29.83,SW,217,3.0,10.0,64,0.00,,,0.23,Wunderground v.1.15,2013-06-10 22:04:00,
2013-06-10 18:05:00,80.5,68.1,29.83,SW,219,5.0,10.0,66,0.00,,,0.23,Wunderground v.1.15,2013-06-10 22:05:00,
2013-06-10 18:08:00,80.5,67.6,29.83,SSW,201,5.0,15.0,65,0.00,,,0.23,Wunderground v.1.15,2013-06-10 22:08:00,
2013-06-10 18:09:00,80.6,68.2,29.83,SSW,203,2.0,15.0,66,0.00,,,0.23,Wunderground v.1.15,2013-06-10 22:09:00,
2013-06-10 18:10:00,80.6,68.6,29.83,SSW,205,2.0,4.0,67,0.00,,,0.23,Wunderground v.1.15,2013-06-10 22:10:00,
2013-06-10 18:13:00,80.6,68.2,29.83,SSW,206,4.0,10.0,66,0.00,,,0.23,Wunderground v.1.15,2013-06-10 22:13:00,
2013-06-10 18:14:00,80.6,68.6,29.83,SW,225,2.0,10.0,67,0.00,,,0.23,Wunderground v.1.15,2013-06-10 22:14:00,
2013-06-10 18:15:00,80.6,68.2,29.83,SW,222,5.0,10.0,66,0.00,,,0.23,Wunderground v.1.15,2013-06-10 22:15:00,
2013-06-10 18:18:00,80.5,67.6,29.82,SW,218,2.0,11.0,65,0.00,,,0.23,Wunderground v.1.15,2013-06-10 22:18:00,
2013-06-10 18:19:00,80.5,68.1,29.82,SSW,209,4.0,11.0,66,0.00,,,0.23,Wunderground v.1.15,2013-06-10 22:19:00,
2013-06-10 18:20:00,80.5,68.1,29.82,SSW,199,4.0,7.0,66,0.00,,,0.23,Wunderground v.1.15,2013-06-10 22:20:00,
2013-06-10 18:24:00,80.3,67.9,29.82,SSE,167,4.0,10.0,66,0.00,,,0.23,Wunderground v.1.15,2013-06-10 22:24:00,
2013-06-10 18:25:00,80.3,67.9,29.83,SSW,212,5.0,10.0,66,0.00,,,0.23,Wunderground v.1.15,2013-06-10 22:25:00,
2013-06-10 18:26:00,80.2,67.8,29.83,SSW,207,9.0,10.0,66,0.00,,,0.23,Wunderground v.1.15,2013-06-10 22:26:00,
2013-06-10 18:29:00,80.2,67.8,29.83,SSW,198,1.0,10.0,66,0.00,,,0.23,Wunderground v.1.15,2013-06-10 22:29:00,
2013-06-10 18:30:00,80.2,68.2,29.83,SSW,199,2.0,4.0,67,0.00,,,0.23,Wunderground v.1.15,2013-06-10 22:30:00,
2013-06-10 18:31:00,80.2,69.1,29.83,SSW,209,0.0,4.0,69,0.00,,,0.23,Wunderground v.1.15,2013-06-10 22:31:00,
2013-06-10 18:32:00,80.3,69.6,29.83,SSW,209,2.0,4.0,70,0.00,,,0.23,Wunderground v.1.15,2013-06-10 22:32:00,
2013-06-10 18:34:00,80.4,69.7,29.83,SSW,213,3.0,9.0,70,0.00,,,0.23,Wunderground v.1.15,2013-06-10 22:34:00,
2013-06-10 18:35:00,80.4,68.9,29.83,SW,222,1.0,9.0,68,0.00,,,0.23,Wunderground v.1.15,2013-06-10 22:35:00,
2013-06-10 18:37:00,80.4,68.4,29.83,SSW,211,4.0,9.0,67,0.00,,,0.23,Wunderground v.1.15,2013-06-10 22:37:00,
2013-06-10 18:39:00,80.5,69.4,29.83,SSW,211,1.0,9.0,69,0.00,,,0.23,Wunderground v.1.15,2013-06-10 22:39:00,
2013-06-10 18:40:00,80.5,69.8,29.83,SSW,211,0.0,2.0,70,0.00,,,0.23,Wunderground v.1.15,2013-06-10 22:40:00,
2013-06-10 18:41:00,80.5,69.8,29.83,SSW,211,0.0,2.0,70,0.00,,,0.23,Wunderground v.1.15,2013-06-10 22:41:00,
2013-06-10 18:42:00,80.6,69.9,29.83,SSW,211,0.0,2.0,70,0.00,,,0.23,Wunderground v.1.15,2013-06-10 22:42:00,
2013-06-10 18:44:00,80.7,70.4,29.83,SSW,211,0.0,3.0,71,0.00,,,0.23,Wunderground v.1.15,2013-06-10 22:44:00,
2013-06-10 18:46:00,80.8,70.5,29.83,SSW,207,3.0,6.0,71,0.00,,,0.23,Wunderground v.1.15,2013-06-10 22:46:00,
2013-06-10 18:48:00,80.6,69.1,29.83,SSW,200,8.0,11.0,68,0.00,,,0.23,Wunderground v.1.15,2013-06-10 22:48:00,
2013-06-10 18:49:00,80.5,68.5,29.83,SSW,202,3.0,3.0,67,0.00,,,0.23,Wunderground v.1.15,2013-06-10 22:49:00,
2013-06-10 18:51:00,80.4,68.9,29.83,SW,233,2.0,3.0,68,0.00,,,0.23,Wunderground v.1.15,2013-06-10 22:51:00,
2013-06-10 18:53:00,80.3,68.8,29.83,SW,223,2.0,6.0,68,0.00,,,0.23,Wunderground v.1.15,2013-06-10 22:53:00,
2013-06-10 18:54:00,80.2,68.2,29.83,SSW,207,2.0,6.0,67,0.00,,,0.23,Wunderground v.1.15,2013-06-10 22:54:00,
2013-06-10 18:56:00,80.1,68.2,29.83,SSW,192,2.0,7.0,67,0.00,,,0.23,Wunderground v.1.15,2013-06-10 22:56:00,
2013-06-10 18:57:00,80.0,68.5,29.82,SSW,196,1.0,7.0,68,0.00,,,0.23,Wunderground v.1.15,2013-06-10 22:57:00,
2013-06-10 18:58:00,79.9,68.4,29.82,SSW,199,4.0,7.0,68,0.00,,,0.23,Wunderground v.1.15,2013-06-10 22:58:00,
2013-06-10 18:59:00,79.8,69.1,29.82,SSW,199,0.0,7.0,70,0.00,,,0.23,Wunderground v.1.15,2013-06-10 22:59:00,
2013-06-10 19:00:00,79.8,69.1,29.82,SSW,199,3.0,3.0,70,0.00,,,0.23,Wunderground v.1.15,2013-06-10 23:00:00,
2013-06-10 19:01:00,79.7,69.0,29.82,SSW,208,4.0,9.0,70,0.00,,,0.23,Wunderground v.1.15,2013-06-10 23:01:00,
2013-06-10 19:02:00,79.6,69.4,29.82,SSW,209,2.0,9.0,71,0.00,,,0.23,Wunderground v.1.15,2013-06-10 23:02:00,
2013-06-10 19:03:00,79.5,68.9,29.82,SSW,209,0.0,9.0,70,0.00,,,0.23,Wunderground v.1.15,2013-06-10 23:03:00,
2013-06-10 19:05:00,79.3,68.2,29.82,SSW,209,3.0,9.0,69,0.00,,,0.23,Wunderground v.1.15,2013-06-10 23:05:00,
2013-06-10 19:07:00,79.0,67.5,29.82,SSW,209,5.0,9.0,68,0.00,,,0.23,Wunderground v.1.15,2013-06-10 23:07:00,
2013-06-10 19:08:00,79.0,67.5,29.82,SW,227,4.0,9.0,68,0.00,,,0.23,Wunderground v.1.15,2013-06-10 23:08:00,
2013-06-10 19:10:00,78.8,67.8,29.82,SW,228,0.0,3.0,69,0.00,,,0.23,Wunderground v.1.15,2013-06-10 23:10:00,
2013-06-10 19:11:00,78.7,67.7,29.82,SW,217,4.0,6.0,69,0.00,,,0.23,Wunderground v.1.15,2013-06-10 23:11:00,
2013-06-10 19:13:00,78.7,68.5,29.82,SW,217,2.0,6.0,71,0.00,,,0.23,Wunderground v.1.15,2013-06-10 23:13:00,
2013-06-10 19:15:00,78.6,68.4,29.82,SW,215,3.0,9.0,71,0.00,,,0.23,Wunderground v.1.15,2013-06-10 23:15:00,
2013-06-10 19:16:00,78.4,69.0,29.82,SW,214,0.0,9.0,73,0.00,,,0.23,Wunderground v.1.15,2013-06-10 23:16:00,
2013-06-10 19:18:00,78.3,68.5,29.82,SW,219,2.0,9.0,72,0.00,,,0.23,Wunderground v.1.15,2013-06-10 23:18:00,
2013-06-10 19:19:00,78.2,68.0,29.82,SSW,209,3.0,9.0,71,0.00,,,0.23,Wunderground v.1.15,2013-06-10 23:19:00,
2013-06-10 19:21:00,78.1,68.7,29.83,SW,225,0.0,3.0,73,0.00,,,0.23,Wunderground v.1.15,2013-06-10 23:21:00,
2013-06-10 19:22:00,78.1,68.7,29.83,SW,225,0.0,3.0,73,0.00,,,0.23,Wunderground v.1.15,2013-06-10 23:22:00,
2013-06-10 19:23:00,78.0,67.8,29.83,South,190,3.0,8.0,71,0.00,,,0.23,Wunderground v.1.15,2013-06-10 23:23:00,
2013-06-10 19:24:00,78.0,68.6,29.83,South,190,2.0,8.0,73,0.00,,,0.23,Wunderground v.1.15,2013-06-10 23:24:00,
2013-06-10 19:27:00,77.8,68.4,29.83,South,190,2.0,8.0,73,0.00,,,0.23,Wunderground v.1.15,2013-06-10 23:27:00,
2013-06-10 19:28:00,77.7,68.4,29.83,SW,217,1.0,8.0,73,0.00,,,0.23,Wunderground v.1.15,2013-06-10 23:28:00,
2013-06-10 19:30:00,77.6,69.0,29.83,SW,217,0.0,2.0,75,0.00,,,0.23,Wunderground v.1.15,2013-06-10 23:30:00,
2013-06-10 19:32:00,77.5,68.2,29.82,SSW,198,6.0,10.0,73,0.00,,,0.23,Wunderground v.1.15,2013-06-10 23:32:00,
2013-06-10 19:33:00,77.5,67.8,29.82,SSW,207,3.0,10.0,72,0.00,,,0.23,Wunderground v.1.15,2013-06-10 23:33:00,
2013-06-10 19:34:00,77.5,67.8,29.83,SSW,206,0.0,10.0,72,0.00,,,0.23,Wunderground v.1.15,2013-06-10 23:34:00,
2013-06-10 19:36:00,77.4,68.9,29.82,SSW,202,4.0,10.0,75,0.00,,,0.23,Wunderground v.1.15,2013-06-10 23:36:00,
2013-06-10 19:37:00,77.4,67.7,29.83,SSW,204,1.0,10.0,72,0.00,,,0.23,Wunderground v.1.15,2013-06-10 23:37:00,
2013-06-10 19:38:00,77.4,68.1,29.83,SSW,205,3.0,10.0,73,0.00,,,0.23,Wunderground v.1.15,2013-06-10 23:38:00,
2013-06-10 19:39:00,77.4,67.7,29.82,SSW,203,1.0,10.0,72,0.00,,,0.23,Wunderground v.1.15,2013-06-10 23:39:00,
2013-06-10 19:40:00,77.4,68.1,29.82,SSW,204,0.0,3.0,73,0.00,,,0.23,Wunderground v.1.15,2013-06-10 23:40:00,
2013-06-10 19:42:00,77.3,67.6,29.82,SSW,203,2.0,3.0,72,0.00,,,0.23,Wunderground v.1.15,2013-06-10 23:42:00,
2013-06-10 19:43:00,77.3,68.4,29.83,SSW,204,1.0,3.0,74,0.00,,,0.23,Wunderground v.1.15,2013-06-10 23:43:00,
2013-06-10 19:44:00,77.2,68.7,29.83,SSW,203,0.0,3.0,75,0.00,,,0.23,Wunderground v.1.15,2013-06-10 23:44:00,
2013-06-10 19:45:00,77.2,68.3,29.83,SSW,203,1.0,3.0,74,0.00,,,0.23,Wunderground v.1.15,2013-06-10 23:45:00,
2013-06-10 19:47:00,77.0,67.7,29.83,SW,233,1.0,7.0,73,0.00,,,0.23,Wunderground v.1.15,2013-06-10 23:47:00,
2013-06-10 19:48:00,77.0,68.1,29.83,SW,233,0.0,7.0,74,0.00,,,0.23,Wunderground v.1.15,2013-06-10 23:48:00,
2013-06-10 19:49:00,77.0,68.1,29.83,SW,234,1.0,7.0,74,0.00,,,0.23,Wunderground v.1.15,2013-06-10 23:49:00,
2013-06-10 19:50:00,77.0,68.1,29.83,SW,234,2.0,2.0,74,0.00,,,0.23,Wunderground v.1.15,2013-06-10 23:50:00,
2013-06-10 19:53:00,76.9,68.8,29.83,SW,235,0.0,2.0,76,0.00,,,0.23,Wunderground v.1.15,2013-06-10 23:53:00,
2013-06-10 19:54:00,76.9,68.8,29.83,SW,234,0.0,2.0,76,0.00,,,0.23,Wunderground v.1.15,2013-06-10 23:54:00,
2013-06-10 19:56:00,76.8,68.7,29.83,SW,235,1.0,2.0,76,0.00,,,0.23,Wunderground v.1.15,2013-06-10 23:56:00,
2013-06-10 19:58:00,76.7,68.9,29.84,SW,221,6.0,6.0,77,0.00,,,0.23,Wunderground v.1.15,2013-06-10 23:58:00,
2013-06-10 19:59:00,76.7,67.4,29.84,SSW,206,1.0,6.0,73,0.00,,,0.23,Wunderground v.1.15,2013-06-10 23:59:00,
2013-06-10 20:02:00,76.7,67.8,29.84,SSW,206,0.0,1.0,74,0.00,,,0.23,Wunderground v.1.15,2013-06-11 00:02:00,
2013-06-10 20:03:00,76.6,68.5,29.84,SSW,206,0.0,1.0,76,0.00,,,0.23,Wunderground v.1.15,2013-06-11 00:03:00,
2013-06-10 20:04:00,76.6,68.1,29.84,SSW,206,0.0,2.0,75,0.00,,,0.23,Wunderground v.1.15,2013-06-11 00:04:00,
2013-06-10 20:05:00,76.6,68.1,29.84,SSW,206,0.0,2.0,75,0.00,,,0.23,Wunderground v.1.15,2013-06-11 00:05:00,
2013-06-10 20:07:00,76.6,67.7,29.83,SSW,206,0.0,2.0,74,0.00,,,0.23,Wunderground v.1.15,2013-06-11 00:07:00,
2013-06-10 20:08:00,76.5,67.6,29.83,SSW,206,0.0,2.0,74,0.00,,,0.23,Wunderground v.1.15,2013-06-11 00:08:00,
2013-06-10 20:09:00,76.4,67.5,29.83,SSW,206,1.0,1.0,74,0.00,,,0.23,Wunderground v.1.15,2013-06-11 00:09:00,
2013-06-10 20:10:00,76.4,67.5,29.83,SSW,206,1.0,1.0,74,0.00,,,0.23,Wunderground v.1.15,2013-06-11 00:10:00,
2013-06-10 20:12:00,76.4,67.9,29.83,SSW,206,0.0,2.0,75,0.00,,,0.23,Wunderground v.1.15,2013-06-11 00:12:00,
2013-06-10 20:14:00,76.3,67.8,29.83,SSW,206,0.0,2.0,75,0.00,,,0.23,Wunderground v.1.15,2013-06-11 00:14:00,
2013-06-10 20:15:00,76.3,68.2,29.83,SSW,206,0.0,2.0,76,0.00,,,0.23,Wunderground v.1.15,2013-06-11 00:15:00,
2013-06-10 20:17:00,76.3,68.6,29.84,SSW,206,3.0,3.0,77,0.00,,,0.23,Wunderground v.1.15,2013-06-11 00:17:00,
2013-06-10 20:19:00,76.1,69.1,29.84,SSW,207,2.0,3.0,79,0.81,,,0.26,Wunderground v.1.15,2013-06-11 00:19:00,
2013-06-10 20:20:00,76.0,69.4,29.85,SSW,213,2.0,3.0,80,0.41,,,0.26,Wunderground v.1.15,2013-06-11 00:20:00,
2013-06-10 20:22:00,75.5,70.0,29.87,SW,217,1.0,3.0,83,0.59,,,0.28,Wunderground v.1.15,2013-06-11 00:22:00,
2013-06-10 20:24:00,74.9,70.1,29.85,SW,217,1.0,3.0,85,0.50,,,0.31,Wunderground v.1.15,2013-06-11 00:24:00,
2013-06-10 20:25:00,74.7,69.9,29.85,SW,234,2.0,3.0,85,0.49,,,0.32,Wunderground v.1.15,2013-06-11 00:25:00,
2013-06-10 20:27:00,74.1,69.0,29.85,SW,234,1.0,5.0,84,0.26,,,0.32,Wunderground v.1.15,2013-06-11 00:27:00,
2013-06-10 20:30:00,73.6,69.5,29.85,SW,229,4.0,4.0,87,0.11,,,0.32,Wunderground v.1.15,2013-06-11 00:30:00,
2013-06-10 20:31:00,73.5,69.4,29.85,SW,229,1.0,4.0,87,0.10,,,0.32,Wunderground v.1.15,2013-06-11 00:31:00,
2013-06-10 20:32:00,73.3,69.5,29.84,SW,229,2.0,4.0,88,0.08,,,0.32,Wunderground v.1.15,2013-06-11 00:32:00,
2013-06-10 20:35:00,72.8,67.7,29.84,SW,232,2.0,4.0,84,0.06,,,0.32,Wunderground v.1.15,2013-06-11 00:35:00,
2013-06-10 20:36:00,72.8,68.7,29.84,South,187,1.0,4.0,87,0.05,,,0.32,Wunderground v.1.15,2013-06-11 00:36:00,
2013-06-10 20:37:00,72.6,68.8,29.84,South,188,0.0,4.0,88,0.05,,,0.32,Wunderground v.1.15,2013-06-11 00:37:00,
2013-06-10 20:40:00,72.4,68.6,29.84,ENE,73,0.0,1.0,88,0.04,,,0.32,Wunderground v.1.15,2013-06-11 00:40:00,
2013-06-10 20:41:00,72.3,68.5,29.84,ENE,73,0.0,1.0,88,0.04,,,0.32,Wunderground v.1.15,2013-06-11 00:41:00,
2013-06-10 20:42:00,72.2,68.8,29.84,ENE,72,0.0,1.0,89,0.00,,,0.32,Wunderground v.1.15,2013-06-11 00:42:00,
2013-06-10 20:46:00,71.9,68.5,29.84,ENE,72,0.0,2.0,89,0.00,,,0.32,Wunderground v.1.15,2013-06-11 00:46:00,
2013-06-10 20:47:00,71.8,68.4,29.84,ENE,72,0.0,2.0,89,0.00,,,0.32,Wunderground v.1.15,2013-06-11 00:47:00,
2013-06-10 20:51:00,71.5,68.4,29.83,ENE,72,1.0,2.0,90,0.00,,,0.32,Wunderground v.1.15,2013-06-11 00:51:00,
2013-06-10 20:52:00,71.4,68.3,29.84,ENE,72,0.0,2.0,90,0.00,,,0.32,Wunderground v.1.15,2013-06-11 00:52:00,
2013-06-10 20:53:00,71.3,68.5,29.84,ENE,73,0.0,2.0,91,0.00,,,0.32,Wunderground v.1.15,2013-06-11 00:53:00,
2013-06-10 20:56:00,71.2,68.4,29.84,ENE,73,0.0,2.0,91,0.00,,,0.32,Wunderground v.1.15,2013-06-11 00:56:00,
2013-06-10 20:57:00,71.2,68.4,29.84,ENE,72,0.0,2.0,91,0.00,,,0.32,Wunderground v.1.15,2013-06-11 00:57:00,
2013-06-10 20:58:00,71.1,68.7,29.85,ENE,72,0.0,2.0,92,0.00,,,0.32,Wunderground v.1.15,2013-06-11 00:58:00,
2013-06-10 21:02:00,71.0,68.6,29.85,South,186,0.0,9.0,92,0.00,,,0.32,Wunderground v.1.15,2013-06-11 01:02:00,
2013-06-10 21:03:00,70.8,68.4,29.85,SSW,196,1.0,9.0,92,0.00,,,0.33,Wunderground v.1.15,2013-06-11 01:03:00,
2013-06-10 21:07:00,70.7,68.6,29.85,SSW,196,2.0,9.0,93,0.00,,,0.33,Wunderground v.1.15,2013-06-11 01:07:00,
2013-06-10 21:08:00,70.6,68.5,29.85,SSW,205,5.0,9.0,93,0.00,,,0.33,Wunderground v.1.15,2013-06-11 01:08:00,
2013-06-10 21:12:00,70.4,68.0,29.84,SW,232,0.0,3.0,92,0.00,,,0.33,Wunderground v.1.15,2013-06-11 01:12:00,
2013-06-10 21:13:00,70.3,67.9,29.84,SW,232,0.0,3.0,92,0.00,,,0.33,Wunderground v.1.15,2013-06-11 01:13:00,
2013-06-10 21:14:00,70.3,67.9,29.84,SW,232,0.0,3.0,92,0.00,,,0.33,Wunderground v.1.15,2013-06-11 01:14:00,
2013-06-10 21:17:00,70.2,67.8,29.84,SW,232,1.0,3.0,92,0.00,,,0.33,Wunderground v.1.15,2013-06-11 01:17:00,
2013-06-10 21:19:00,70.1,67.7,29.84,SW,232,0.0,3.0,92,0.00,,,0.33,Wunderground v.1.15,2013-06-11 01:19:00,
2013-06-10 21:22:00,70.0,67.9,29.85,SW,232,0.0,1.0,93,0.00,,,0.33,Wunderground v.1.15,2013-06-11 01:22:00,
2013-06-10 21:23:00,69.9,67.8,29.85,SW,232,0.0,1.0,93,0.00,,,0.33,Wunderground v.1.15,2013-06-11 01:23:00,
2013-06-10 21:24:00,69.9,67.8,29.85,SW,232,0.0,1.0,93,0.00,,,0.33,Wunderground v.1.15,2013-06-11 01:24:00,
2013-06-10 21:25:00,69.9,67.8,29.85,SW,232,0.0,1.0,93,0.00,,,0.33,Wunderground v.1.15,2013-06-11 01:25:00,
2013-06-10 21:27:00,69.8,67.7,29.84,SW,232,0.0,1.0,93,0.00,,,0.33,Wunderground v.1.15,2013-06-11 01:27:00,
2013-06-10 21:28:00,69.7,67.6,29.84,SW,232,0.0,1.0,93,0.00,,,0.33,Wunderground v.1.15,2013-06-11 01:28:00,
2013-06-10 21:30:00,69.6,67.5,29.84,SW,232,0.0,0.0,93,0.00,,,0.33,Wunderground v.1.15,2013-06-11 01:30:00,
2013-06-10 21:31:00,69.6,67.5,29.85,SW,232,0.0,0.0,93,0.00,,,0.33,Wunderground v.1.15,2013-06-11 01:31:00,
2013-06-10 21:32:00,69.5,67.4,29.85,SW,232,0.0,0.0,93,0.00,,,0.33,Wunderground v.1.15,2013-06-11 01:32:00,
2013-06-10 21:33:00,69.5,67.4,29.85,SW,232,0.0,0.0,93,0.00,,,0.33,Wunderground v.1.15,2013-06-11 01:33:00,
2013-06-10 21:35:00,69.4,67.3,29.85,SW,232,0.0,0.0,93,0.00,,,0.33,Wunderground v.1.15,2013-06-11 01:35:00,
2013-06-10 21:36:00,69.4,67.3,29.85,SW,232,0.0,0.0,93,0.00,,,0.33,Wunderground v.1.15,2013-06-11 01:36:00,
2013-06-10 21:38:00,69.3,67.2,29.85,SW,232,0.0,1.0,93,0.00,,,0.33,Wunderground v.1.15,2013-06-11 01:38:00,
2013-06-10 21:39:00,69.2,67.1,29.85,SW,232,0.0,1.0,93,0.00,,,0.33,Wunderground v.1.15,2013-06-11 01:39:00,
2013-06-10 21:40:00,69.2,67.1,29.85,SW,232,0.0,0.0,93,0.00,,,0.33,Wunderground v.1.15,2013-06-11 01:40:00,
2013-06-10 21:42:00,69.1,67.0,29.85,SW,232,0.0,0.0,93,0.00,,,0.33,Wunderground v.1.15,2013-06-11 01:42:00,
2013-06-10 21:43:00,69.1,67.0,29.85,SW,232,0.0,0.0,93,0.00,,,0.33,Wunderground v.1.15,2013-06-11 01:43:00,
2013-06-10 21:45:00,69.0,66.9,29.85,SW,232,0.0,0.0,93,0.00,,,0.33,Wunderground v.1.15,2013-06-11 01:45:00,
2013-06-10 21:46:00,69.0,66.9,29.85,SW,232,0.0,0.0,93,0.00,,,0.33,Wunderground v.1.15,2013-06-11 01:46:00,
2013-06-10 21:47:00,69.0,66.9,29.85,SW,232,0.0,1.0,93,0.00,,,0.33,Wunderground v.1.15,2013-06-11 01:47:00,
2013-06-10 21:48:00,68.9,66.8,29.85,SW,231,1.0,4.0,93,0.00,,,0.33,Wunderground v.1.15,2013-06-11 01:48:00,
2013-06-10 21:50:00,68.9,66.8,29.86,SW,231,0.0,0.0,93,0.00,,,0.33,Wunderground v.1.15,2013-06-11 01:50:00,
2013-06-10 21:51:00,68.9,67.1,29.86,SW,230,0.0,0.0,94,0.00,,,0.33,Wunderground v.1.15,2013-06-11 01:51:00,
2013-06-10 21:52:00,68.9,67.1,29.85,SW,230,0.0,0.0,94,0.00,,,0.33,Wunderground v.1.15,2013-06-11 01:52:00,
2013-06-10 21:53:00,68.9,67.1,29.85,SW,230,1.0,1.0,94,0.00,,,0.33,Wunderground v.1.15,2013-06-11 01:53:00,
2013-06-10 21:54:00,68.9,67.1,29.85,SW,231,1.0,1.0,94,0.00,,,0.33,Wunderground v.1.15,2013-06-11 01:54:00,
2013-06-10 21:55:00,68.9,67.1,29.85,SW,230,0.0,1.0,94,0.00,,,0.33,Wunderground v.1.15,2013-06-11 01:55:00,
2013-06-10 21:57:00,69.0,67.2,29.85,SW,230,0.0,1.0,94,0.00,,,0.33,Wunderground v.1.15,2013-06-11 01:57:00,
2013-06-10 21:58:00,69.0,67.2,29.86,SW,231,0.0,1.0,94,0.00,,,0.33,Wunderground v.1.15,2013-06-11 01:58:00,
2013-06-10 21:59:00,69.0,67.2,29.86,SW,230,1.0,1.0,94,0.00,,,0.33,Wunderground v.1.15,2013-06-11 01:59:00,
2013-06-10 22:00:00,69.0,67.2,29.86,SW,231,0.0,1.0,94,0.00,,,0.33,Wunderground v.1.15,2013-06-11 02:00:00,
2013-06-10 22:02:00,69.0,67.2,29.86,SW,231,0.0,1.0,94,0.00,,,0.33,Wunderground v.1.15,2013-06-11 02:02:00,
2013-06-10 22:03:00,69.0,67.2,29.86,SW,230,0.0,1.0,94,0.00,,,0.33,Wunderground v.1.15,2013-06-11 02:03:00,
2013-06-10 22:04:00,69.0,67.2,29.86,SW,230,0.0,1.0,94,0.00,,,0.33,Wunderground v.1.15,2013-06-11 02:04:00,
2013-06-10 22:06:00,68.9,67.1,29.86,SW,231,1.0,1.0,94,0.00,,,0.33,Wunderground v.1.15,2013-06-11 02:06:00,
2013-06-10 22:07:00,69.0,67.2,29.86,SW,230,1.0,1.0,94,0.00,,,0.33,Wunderground v.1.15,2013-06-11 02:07:00,
2013-06-10 22:09:00,69.0,67.2,29.86,SW,230,2.0,2.0,94,0.00,,,0.33,Wunderground v.1.15,2013-06-11 02:09:00,
2013-06-10 22:10:00,68.9,67.1,29.86,SW,230,0.0,1.0,94,0.00,,,0.33,Wunderground v.1.15,2013-06-11 02:10:00,
2013-06-10 22:11:00,68.9,67.1,29.86,SW,231,0.0,1.0,94,0.00,,,0.33,Wunderground v.1.15,2013-06-11 02:11:00,
2013-06-10 22:12:00,68.9,67.1,29.86,SW,230,1.0,1.0,94,0.00,,,0.33,Wunderground v.1.15,2013-06-11 02:12:00,
2013-06-10 22:14:00,68.9,67.1,29.86,SW,230,0.0,1.0,94,0.00,,,0.33,Wunderground v.1.15,2013-06-11 02:14:00,
2013-06-10 22:15:00,68.9,67.1,29.86,SW,231,0.0,1.0,94,0.00,,,0.33,Wunderground v.1.15,2013-06-11 02:15:00,
2013-06-10 22:17:00,68.9,67.1,29.86,SW,230,0.0,1.0,94,0.00,,,0.33,Wunderground v.1.15,2013-06-11 02:17:00,
2013-06-10 22:18:00,68.9,67.1,29.86,SW,230,0.0,1.0,94,0.00,,,0.33,Wunderground v.1.15,2013-06-11 02:18:00,
2013-06-10 22:19:00,68.8,67.3,29.86,SW,231,0.0,0.0,95,0.00,,,0.33,Wunderground v.1.15,2013-06-11 02:19:00,
2013-06-10 22:21:00,68.8,67.3,29.86,SW,231,0.0,1.0,95,0.00,,,0.33,Wunderground v.1.15,2013-06-11 02:21:00,
2013-06-10 22:22:00,68.8,67.3,29.86,SW,231,1.0,1.0,95,0.00,,,0.33,Wunderground v.1.15,2013-06-11 02:22:00,
2013-06-10 22:23:00,68.8,67.3,29.85,SW,231,0.0,1.0,95,0.00,,,0.33,Wunderground v.1.15,2013-06-11 02:23:00,
2013-06-10 22:25:00,68.8,67.3,29.85,SW,230,0.0,1.0,95,0.00,,,0.33,Wunderground v.1.15,2013-06-11 02:25:00,
2013-06-10 22:26:00,68.8,67.3,29.86,SW,230,0.0,1.0,95,0.00,,,0.33,Wunderground v.1.15,2013-06-11 02:26:00,
2013-06-10 22:28:00,68.8,67.3,29.85,SW,230,0.0,1.0,95,0.00,,,0.33,Wunderground v.1.15,2013-06-11 02:28:00,
2013-06-10 22:30:00,68.8,67.3,29.85,SW,230,1.0,1.0,95,0.00,,,0.33,Wunderground v.1.15,2013-06-11 02:30:00,
2013-06-10 22:31:00,68.8,67.3,29.86,SW,230,0.0,1.0,95,0.00,,,0.33,Wunderground v.1.15,2013-06-11 02:31:00,
2013-06-10 22:33:00,68.8,67.3,29.86,SW,231,0.0,1.0,95,0.00,,,0.33,Wunderground v.1.15,2013-06-11 02:33:00,
2013-06-10 22:34:00,68.8,67.3,29.86,SW,230,0.0,1.0,95,0.00,,,0.33,Wunderground v.1.15,2013-06-11 02:34:00,
2013-06-10 22:35:00,68.8,67.3,29.86,SW,230,0.0,1.0,95,0.00,,,0.33,Wunderground v.1.15,2013-06-11 02:35:00,
2013-06-10 22:36:00,68.9,67.4,29.86,SW,230,0.0,1.0,95,0.00,,,0.33,Wunderground v.1.15,2013-06-11 02:36:00,
2013-06-10 22:38:00,68.9,67.4,29.86,SW,231,0.0,1.0,95,0.00,,,0.33,Wunderground v.1.15,2013-06-11 02:38:00,
2013-06-10 22:39:00,68.9,67.4,29.86,SW,230,0.0,1.0,95,0.00,,,0.33,Wunderground v.1.15,2013-06-11 02:39:00,
2013-06-10 22:40:00,68.9,67.4,29.86,SW,230,0.0,0.0,95,0.00,,,0.33,Wunderground v.1.15,2013-06-11 02:40:00,
2013-06-10 22:41:00,68.9,67.7,29.86,SW,230,0.0,0.0,96,0.00,,,0.33,Wunderground v.1.15,2013-06-11 02:41:00,
2013-06-10 22:43:00,69.0,67.8,29.86,SW,230,0.0,2.0,96,0.00,,,0.33,Wunderground v.1.15,2013-06-11 02:43:00,
2013-06-10 22:44:00,69.0,67.8,29.86,SW,230,0.0,2.0,96,0.00,,,0.33,Wunderground v.1.15,2013-06-11 02:44:00,
2013-06-10 22:46:00,69.0,67.8,29.86,SW,230,0.0,2.0,96,0.00,,,0.33,Wunderground v.1.15,2013-06-11 02:46:00,
2013-06-10 22:47:00,69.0,67.8,29.86,SW,231,0.0,2.0,96,0.00,,,0.33,Wunderground v.1.15,2013-06-11 02:47:00,
2013-06-10 22:49:00,69.1,67.9,29.86,SW,230,0.0,2.0,96,0.00,,,0.33,Wunderground v.1.15,2013-06-11 02:49:00,
2013-06-10 22:50:00,69.1,67.9,29.86,SW,230,0.0,0.0,96,0.00,,,0.33,Wunderground v.1.15,2013-06-11 02:50:00,
2013-06-10 22:51:00,69.1,67.9,29.86,SW,231,0.0,0.0,96,0.00,,,0.33,Wunderground v.1.15,2013-06-11 02:51:00,
2013-06-10 22:53:00,69.1,67.9,29.86,SW,231,0.0,0.0,96,0.00,,,0.33,Wunderground v.1.15,2013-06-11 02:53:00,
2013-06-10 22:54:00,69.1,67.9,29.86,SW,231,0.0,0.0,96,0.00,,,0.33,Wunderground v.1.15,2013-06-11 02:54:00,
2013-06-10 22:55:00,69.2,68.0,29.86,SW,230,4.0,5.0,96,0.00,,,0.33,Wunderground v.1.15,2013-06-11 02:55:00,
2013-06-10 22:56:00,69.2,68.0,29.86,SW,230,0.0,5.0,96,0.00,,,0.33,Wunderground v.1.15,2013-06-11 02:56:00,
2013-06-10 22:59:00,69.3,68.1,29.86,SW,230,0.0,5.0,96,0.00,,,0.33,Wunderground v.1.15,2013-06-11 02:59:00,
2013-06-10 23:00:00,69.3,68.1,29.86,SW,229,1.0,5.0,96,0.00,,,0.33,Wunderground v.1.15,2013-06-11 03:00:00,
2013-06-10 23:01:00,69.4,68.2,29.86,SW,229,0.0,5.0,96,0.00,,,0.33,Wunderground v.1.15,2013-06-11 03:01:00,
2013-06-10 23:04:00,69.5,68.0,29.86,SW,219,7.0,7.0,95,0.00,,,0.33,Wunderground v.1.15,2013-06-11 03:04:00,
2013-06-10 23:05:00,69.5,68.0,29.86,SW,214,0.0,9.0,95,0.00,,,0.33,Wunderground v.1.15,2013-06-11 03:05:00,
2013-06-10 23:06:00,69.6,68.1,29.86,SW,214,0.0,9.0,95,0.00,,,0.33,Wunderground v.1.15,2013-06-11 03:06:00,
2013-06-10 23:09:00,69.7,68.2,29.86,SW,214,0.0,9.0,95,0.00,,,0.33,Wunderground v.1.15,2013-06-11 03:09:00,
2013-06-10 23:10:00,69.7,68.2,29.86,SW,214,0.0,1.0,95,0.00,,,0.33,Wunderground v.1.15,2013-06-11 03:10:00,
2013-06-10 23:13:00,69.8,68.3,29.86,SW,214,0.0,1.0,95,0.00,,,0.33,Wunderground v.1.15,2013-06-11 03:13:00,
2013-06-10 23:14:00,69.8,68.3,29.86,SW,214,0.0,1.0,95,0.00,,,0.33,Wunderground v.1.15,2013-06-11 03:14:00,
2013-06-10 23:15:00,69.8,68.3,29.86,SW,214,0.0,1.0,95,0.00,,,0.33,Wunderground v.1.15,2013-06-11 03:15:00,
2013-06-10 23:18:00,69.8,68.3,29.87,SW,214,3.0,3.0,95,0.00,,,0.33,Wunderground v.1.15,2013-06-11 03:18:00,
2013-06-10 23:19:00,69.8,68.3,29.87,SW,221,1.0,1.0,95,0.00,,,0.33,Wunderground v.1.15,2013-06-11 03:19:00,
2013-06-10 23:20:00,69.9,68.4,29.87,SW,221,0.0,1.0,95,0.00,,,0.33,Wunderground v.1.15,2013-06-11 03:20:00,
2013-06-10 23:22:00,69.9,68.4,29.87,SW,223,2.0,3.0,95,0.00,,,0.33,Wunderground v.1.15,2013-06-11 03:22:00,
2013-06-10 23:23:00,69.9,68.1,29.88,SW,229,3.0,4.0,94,0.00,,,0.33,Wunderground v.1.15,2013-06-11 03:23:00,
2013-06-10 23:25:00,69.9,68.1,29.87,SW,229,2.0,4.0,94,0.00,,,0.33,Wunderground v.1.15,2013-06-11 03:25:00,
2013-06-10 23:27:00,70.0,68.2,29.88,North,350,3.0,5.0,94,0.00,,,0.33,Wunderground v.1.15,2013-06-11 03:27:00,
2013-06-10 23:28:00,70.0,68.2,29.88,North,350,1.0,5.0,94,0.00,,,0.33,Wunderground v.1.15,2013-06-11 03:28:00,
2013-06-10 23:30:00,70.0,68.2,29.87,North,350,3.0,3.0,94,0.00,,,0.33,Wunderground v.1.15,2013-06-11 03:30:00,
2013-06-10 23:32:00,69.9,68.1,29.88,North,350,1.0,3.0,94,0.00,,,0.33,Wunderground v.1.15,2013-06-11 03:32:00,
2013-06-10 23:33:00,69.9,68.1,29.88,North,350,2.0,3.0,94,0.00,,,0.33,Wunderground v.1.15,2013-06-11 03:33:00,
2013-06-10 23:35:00,69.8,68.0,29.88,North,350,4.0,4.0,94,0.00,,,0.33,Wunderground v.1.15,2013-06-11 03:35:00,
2013-06-10 23:36:00,69.8,68.0,29.88,North,350,1.0,4.0,94,0.00,,,0.33,Wunderground v.1.15,2013-06-11 03:36:00,
2013-06-10 23:37:00,69.8,68.0,29.88,North,349,3.0,4.0,94,0.00,,,0.33,Wunderground v.1.15,2013-06-11 03:37:00,
2013-06-10 23:39:00,69.8,68.0,29.88,North,350,0.0,4.0,94,0.00,,,0.33,Wunderground v.1.15,2013-06-11 03:39:00,
2013-06-10 23:41:00,69.8,68.0,29.88,North,350,1.0,2.0,94,0.00,,,0.33,Wunderground v.1.15,2013-06-11 03:41:00,
2013-06-10 23:42:00,69.8,68.0,29.88,North,350,1.0,2.0,94,0.00,,,0.33,Wunderground v.1.15,2013-06-11 03:42:00,
2013-06-10 23:44:00,69.8,68.0,29.88,North,349,1.0,3.0,94,0.00,,,0.33,Wunderground v.1.15,2013-06-11 03:44:00,
2013-06-10 23:46:00,69.8,68.0,29.88,North,350,2.0,3.0,94,0.00,,,0.33,Wunderground v.1.15,2013-06-11 03:46:00,
2013-06-10 23:47:00,69.8,68.0,29.88,North,349,0.0,3.0,94,0.00,,,0.33,Wunderground v.1.15,2013-06-11 03:47:00,
2013-06-10 23:50:00,69.7,67.9,29.88,North,349,0.0,1.0,94,0.00,,,0.33,Wunderground v.1.15,2013-06-11 03:50:00,
2013-06-10 23:51:00,69.7,67.9,29.88,North,350,0.0,1.0,94,0.00,,,0.33,Wunderground v.1.15,2013-06-11 03:51:00,
2013-06-10 23:52:00,69.7,67.9,29.88,North,350,0.0,1.0,94,0.00,,,0.33,Wunderground v.1.15,2013-06-11 03:52:00,
2013-06-10 23:55:00,69.7,67.9,29.88,North,349,0.0,1.0,94,0.00,,,0.33,Wunderground v.1.15,2013-06-11 03:55:00,
2013-06-10 23:56:00,69.7,67.9,29.88,North,349,0.0,1.0,94,0.00,,,0.33,Wunderground v.1.15,2013-06-11 03:56:00,
2013-06-10 23:57:00,69.6,67.8,29.88,North,350,2.0,2.0,94,0.00,,,0.33,Wunderground v.1.15,2013-06-11 03:57:00,
2013-06-10 23:58:00,69.6,67.8,29.88,North,350,1.0,2.0,94,0.00,,,0.33,Wunderground v.1.15,2013-06-11 03:58:00,